GEFSSE_prec_meanprecacc_198.txt.gz
Total_Precipitation_Accumulation
0.05 0.11 0.33 0.41 0.49 0.49 0.45 0.43 0.41 0.40 0.40 0.42 0.42 0.42 0.41 0.39 0.41 0.34 0.33 0.30 0.32 0.37 0.46 0.53 0.51 0.46 0.41 0.37 0.33 0.25 0.21 0.17 0.17 0.16 0.14 0.18 0.20 0.20 0.16 0.16 0.19 0.23 0.29
0.05 0.12 0.33 0.42 0.53 0.52 0.52 0.48 0.45 0.41 0.44 0.49 0.53 0.50 0.45 0.41 0.40 0.34 0.30 0.30 0.31 0.36 0.45 0.51 0.45 0.37 0.27 0.20 0.17 0.15 0.13 0.11 0.09 0.05 0.04 0.05 0.09 0.12 0.12 0.12 0.14 0.18 0.21
0.06 0.13 0.32 0.46 0.54 0.55 0.55 0.51 0.47 0.42 0.47 0.57 0.64 0.58 0.48 0.38 0.36 0.36 0.30 0.30 0.34 0.40 0.43 0.45 0.37 0.29 0.21 0.18 0.13 0.09 0.08 0.07 0.05 0.03 0.03 0.05 0.08 0.11 0.11 0.11 0.14 0.18 0.20
0.11 0.16 0.32 0.52 0.56 0.57 0.58 0.57 0.54 0.51 0.50 0.57 0.65 0.60 0.51 0.44 0.43 0.40 0.35 0.31 0.35 0.36 0.33 0.34 0.29 0.22 0.16 0.12 0.11 0.08 0.07 0.06 0.04 0.03 0.06 0.07 0.08 0.13 0.15 0.15 0.17 0.20 0.22
0.21 0.25 0.42 0.59 0.65 0.62 0.61 0.58 0.60 0.60 0.59 0.60 0.64 0.61 0.53 0.48 0.48 0.46 0.40 0.32 0.31 0.32 0.31 0.28 0.24 0.17 0.12 0.09 0.08 0.08 0.08 0.07 0.04 0.03 0.07 0.08 0.11 0.18 0.22 0.21 0.22 0.24 0.23
0.30 0.42 0.62 0.74 0.76 0.74 0.69 0.64 0.65 0.68 0.72 0.72 0.70 0.66 0.59 0.55 0.54 0.50 0.44 0.31 0.27 0.27 0.29 0.26 0.23 0.17 0.12 0.09 0.08 0.07 0.08 0.07 0.04 0.03 0.04 0.07 0.11 0.23 0.25 0.24 0.25 0.26 0.27
0.39 0.57 0.81 0.94 0.93 0.88 0.82 0.81 0.79 0.80 0.82 0.81 0.78 0.73 0.64 0.60 0.58 0.53 0.43 0.30 0.26 0.26 0.28 0.25 0.23 0.19 0.15 0.12 0.10 0.08 0.07 0.05 0.03 0.03 0.04 0.07 0.13 0.24 0.23 0.25 0.28 0.31 0.33
0.66 0.84 1.03 1.17 1.14 1.01 0.91 0.86 0.83 0.83 0.85 0.84 0.78 0.75 0.71 0.66 0.63 0.57 0.45 0.33 0.29 0.31 0.34 0.29 0.25 0.21 0.17 0.14 0.12 0.10 0.06 0.05 0.04 0.03 0.05 0.06 0.14 0.26 0.24 0.22 0.25 0.30 0.34
1.15 1.26 1.30 1.32 1.25 1.19 1.03 0.91 0.84 0.82 0.86 0.87 0.83 0.80 0.77 0.73 0.73 0.63 0.51 0.42 0.37 0.37 0.36 0.33 0.27 0.23 0.20 0.17 0.14 0.10 0.06 0.04 0.04 0.04 0.04 0.07 0.15 0.29 0.31 0.30 0.33 0.34 0.33
1.58 1.67 1.67 1.59 1.47 1.36 1.22 1.01 0.89 0.86 0.86 0.87 0.84 0.75 0.69 0.68 0.68 0.60 0.47 0.43 0.42 0.40 0.36 0.32 0.27 0.26 0.22 0.18 0.15 0.11 0.07 0.05 0.04 0.04 0.06 0.10 0.22 0.37 0.41 0.41 0.42 0.39 0.33
1.93 1.96 2.02 1.96 1.77 1.63 1.40 1.10 0.98 0.94 0.92 0.88 0.85 0.72 0.69 0.70 0.65 0.51 0.40 0.35 0.37 0.38 0.35 0.33 0.29 0.27 0.24 0.19 0.16 0.13 0.10 0.07 0.05 0.05 0.08 0.15 0.27 0.37 0.39 0.41 0.40 0.33 0.28
2.10 2.11 2.14 2.18 2.12 1.98 1.70 1.41 1.23 1.07 1.01 0.88 0.76 0.75 0.68 0.69 0.70 0.56 0.48 0.41 0.38 0.37 0.35 0.35 0.33 0.30 0.26 0.20 0.17 0.14 0.12 0.10 0.09 0.08 0.08 0.13 0.22 0.35 0.41 0.41 0.36 0.30 0.27
2.30 2.31 2.31 2.39 2.35 2.18 1.92 1.63 1.41 1.25 1.13 1.04 0.87 0.79 0.74 0.74 0.73 0.72 0.68 0.59 0.52 0.42 0.40 0.38 0.38 0.29 0.25 0.23 0.21 0.16 0.14 0.14 0.12 0.10 0.09 0.10 0.20 0.39 0.49 0.46 0.37 0.33 0.31
2.46 2.38 2.39 2.46 2.46 2.31 2.04 1.81 1.54 1.39 1.28 1.19 1.04 0.94 0.91 0.85 0.79 0.74 0.69 0.64 0.62 0.51 0.48 0.44 0.37 0.30 0.25 0.22 0.23 0.22 0.21 0.19 0.17 0.17 0.15 0.13 0.18 0.32 0.43 0.44 0.43 0.43 0.42
2.42 2.44 2.49 2.42 2.39 2.37 2.23 1.98 1.68 1.52 1.38 1.26 1.23 1.09 1.00 0.94 0.87 0.86 0.77 0.69 0.63 0.58 0.55 0.50 0.43 0.38 0.32 0.27 0.25 0.24 0.24 0.22 0.20 0.21 0.20 0.16 0.15 0.20 0.30 0.40 0.48 0.54 0.56
2.16 2.37 2.49 2.48 2.40 2.31 2.30 2.21 1.90 1.57 1.50 1.43 1.33 1.27 1.15 1.04 0.96 0.92 0.85 0.80 0.72 0.64 0.58 0.57 0.52 0.50 0.45 0.41 0.32 0.27 0.26 0.24 0.21 0.20 0.19 0.19 0.18 0.17 0.22 0.33 0.44 0.55 0.64
1.93 2.14 2.35 2.54 2.55 2.39 2.30 2.34 2.27 1.94 1.62 1.45 1.40 1.35 1.29 1.19 1.09 1.01 0.97 0.86 0.76 0.72 0.68 0.69 0.67 0.65 0.57 0.52 0.44 0.39 0.36 0.33 0.28 0.25 0.22 0.20 0.22 0.22 0.23 0.28 0.38 0.50 0.65
1.80 1.97 2.14 2.27 2.48 2.46 2.33 2.24 2.26 2.18 1.91 1.64 1.45 1.36 1.29 1.21 1.19 1.18 1.14 1.07 0.94 0.89 0.84 0.77 0.73 0.71 0.64 0.59 0.55 0.50 0.46 0.42 0.38 0.35 0.33 0.30 0.28 0.25 0.24 0.28 0.35 0.44 0.57
1.69 1.87 2.13 2.09 2.22 2.45 2.58 2.43 2.25 2.15 1.99 1.78 1.56 1.36 1.27 1.28 1.27 1.22 1.14 1.14 1.16 1.05 0.94 0.88 0.79 0.73 0.66 0.63 0.64 0.59 0.54 0.51 0.46 0.43 0.42 0.41 0.40 0.38 0.35 0.34 0.32 0.33 0.40
1.71 1.83 2.06 2.08 2.17 2.39 2.65 2.65 2.51 2.31 2.05 1.90 1.66 1.43 1.28 1.25 1.32 1.26 1.17 1.16 1.19 1.14 0.98 0.90 0.84 0.80 0.72 0.72 0.71 0.64 0.59 0.55 0.53 0.50 0.46 0.45 0.44 0.44 0.43 0.40 0.37 0.36 0.36
1.83 1.84 1.95 2.06 2.18 2.28 2.39 2.36 2.25 2.20 2.11 1.99 1.83 1.68 1.49 1.37 1.39 1.41 1.32 1.27 1.27 1.20 1.10 1.07 1.07 0.98 0.89 0.90 0.86 0.68 0.57 0.54 0.52 0.50 0.48 0.46 0.42 0.41 0.39 0.38 0.38 0.36 0.36
1.76 1.81 1.95 2.08 2.14 2.13 2.23 2.38 2.29 2.33 2.32 2.25 2.14 1.96 1.77 1.60 1.55 1.52 1.52 1.50 1.44 1.34 1.26 1.20 1.18 1.12 1.03 1.06 1.05 0.98 0.74 0.57 0.49 0.46 0.46 0.44 0.44 0.44 0.40 0.39 0.39 0.37 0.34
1.63 1.84 1.94 2.01 2.11 2.14 2.34 2.74 2.68 2.55 2.49 2.42 2.31 2.17 2.00 1.85 1.76 1.63 1.57 1.64 1.60 1.49 1.39 1.34 1.29 1.24 1.22 1.22 1.18 1.22 0.98 0.69 0.54 0.49 0.46 0.43 0.44 0.48 0.49 0.48 0.44 0.40 0.35
1.44 1.69 1.95 2.05 2.18 2.33 2.53 2.73 2.77 2.52 2.33 2.29 2.27 2.25 2.19 1.97 1.87 1.80 1.72 1.67 1.69 1.65 1.52 1.47 1.44 1.37 1.33 1.28 1.25 1.13 1.04 0.88 0.79 0.62 0.49 0.47 0.46 0.44 0.46 0.48 0.47 0.46 0.45
1.30 1.47 1.71 1.97 2.08 2.32 2.49 2.57 2.72 2.52 2.25 2.25 2.25 2.20 2.19 2.10 1.90 1.82 1.77 1.67 1.58 1.57 1.56 1.55 1.51 1.46 1.34 1.23 1.18 1.12 1.06 0.90 0.77 0.73 0.57 0.46 0.47 0.45 0.45 0.47 0.50 0.51 0.51
1.13 1.25 1.40 1.62 1.74 1.87 2.07 2.27 2.44 2.46 2.36 2.25 2.13 2.06 2.02 1.99 1.95 1.87 1.80 1.71 1.57 1.47 1.43 1.43 1.46 1.45 1.42 1.32 1.23 1.17 1.12 1.03 0.89 0.85 0.79 0.62 0.55 0.50 0.50 0.52 0.52 0.52 0.54

GEFSSE_prec_meanprecacc_204.txt.gz
Total_Precipitation_Accumulation
0.05 0.12 0.35 0.43 0.50 0.51 0.49 0.45 0.44 0.44 0.45 0.47 0.47 0.46 0.45 0.44 0.45 0.38 0.37 0.34 0.34 0.40 0.49 0.56 0.53 0.47 0.42 0.38 0.33 0.26 0.22 0.18 0.17 0.16 0.15 0.18 0.20 0.20 0.16 0.17 0.21 0.25 0.31
0.05 0.13 0.34 0.44 0.55 0.54 0.54 0.51 0.47 0.45 0.49 0.55 0.58 0.54 0.50 0.46 0.44 0.38 0.35 0.34 0.34 0.39 0.49 0.54 0.48 0.39 0.28 0.20 0.17 0.16 0.14 0.12 0.09 0.06 0.04 0.06 0.09 0.12 0.12 0.12 0.15 0.19 0.23
0.06 0.14 0.34 0.47 0.57 0.57 0.58 0.54 0.50 0.47 0.53 0.63 0.68 0.62 0.53 0.44 0.41 0.41 0.35 0.33 0.36 0.44 0.48 0.48 0.40 0.31 0.22 0.18 0.14 0.10 0.08 0.07 0.05 0.03 0.03 0.05 0.09 0.11 0.11 0.12 0.15 0.19 0.22
0.11 0.16 0.32 0.54 0.59 0.60 0.61 0.59 0.57 0.55 0.54 0.61 0.69 0.64 0.56 0.51 0.48 0.44 0.39 0.35 0.38 0.41 0.38 0.38 0.32 0.24 0.17 0.13 0.11 0.09 0.08 0.07 0.05 0.03 0.07 0.08 0.09 0.14 0.16 0.17 0.19 0.21 0.24
0.21 0.26 0.43 0.62 0.69 0.66 0.66 0.62 0.64 0.64 0.61 0.63 0.68 0.65 0.58 0.54 0.55 0.51 0.44 0.36 0.35 0.37 0.36 0.32 0.27 0.19 0.13 0.10 0.09 0.08 0.08 0.07 0.04 0.04 0.07 0.09 0.12 0.20 0.25 0.23 0.23 0.25 0.24
0.30 0.43 0.64 0.78 0.80 0.78 0.74 0.69 0.70 0.73 0.77 0.75 0.75 0.70 0.64 0.60 0.60 0.56 0.48 0.35 0.32 0.31 0.33 0.30 0.26 0.20 0.14 0.10 0.08 0.08 0.08 0.07 0.04 0.03 0.06 0.09 0.13 0.25 0.28 0.25 0.27 0.27 0.28
0.40 0.58 0.83 0.99 0.98 0.93 0.87 0.87 0.85 0.87 0.89 0.86 0.83 0.78 0.69 0.65 0.64 0.60 0.49 0.35 0.31 0.31 0.33 0.29 0.26 0.22 0.17 0.14 0.11 0.09 0.08 0.06 0.03 0.04 0.06 0.10 0.16 0.27 0.26 0.26 0.29 0.32 0.35
0.66 0.84 1.06 1.21 1.18 1.06 0.96 0.91 0.88 0.91 0.93 0.91 0.84 0.81 0.76 0.71 0.69 0.64 0.52 0.39 0.34 0.36 0.39 0.34 0.30 0.24 0.20 0.16 0.14 0.10 0.07 0.05 0.04 0.04 0.07 0.09 0.17 0.29 0.27 0.24 0.26 0.32 0.36
1.15 1.27 1.32 1.35 1.29 1.24 1.08 0.95 0.89 0.87 0.92 0.94 0.90 0.86 0.83 0.79 0.78 0.69 0.58 0.49 0.44 0.43 0.42 0.39 0.32 0.26 0.23 0.20 0.16 0.10 0.07 0.05 0.04 0.04 0.05 0.08 0.17 0.32 0.34 0.32 0.35 0.36 0.35
1.60 1.68 1.68 1.62 1.51 1.41 1.27 1.06 0.93 0.91 0.91 0.93 0.91 0.82 0.75 0.73 0.73 0.65 0.54 0.51 0.49 0.46 0.41 0.36 0.32 0.30 0.25 0.21 0.17 0.11 0.07 0.06 0.05 0.05 0.06 0.11 0.23 0.40 0.44 0.44 0.45 0.41 0.35
1.94 1.97 2.03 1.98 1.80 1.67 1.46 1.16 1.05 1.01 0.99 0.93 0.90 0.78 0.77 0.77 0.72 0.59 0.49 0.43 0.43 0.44 0.40 0.37 0.34 0.30 0.26 0.21 0.17 0.13 0.10 0.08 0.05 0.05 0.08 0.16 0.29 0.40 0.42 0.43 0.43 0.35 0.30
2.10 2.12 2.15 2.20 2.14 2.01 1.75 1.45 1.32 1.18 1.09 0.95 0.81 0.81 0.74 0.75 0.77 0.64 0.56 0.49 0.45 0.42 0.40 0.40 0.39 0.34 0.29 0.22 0.19 0.14 0.13 0.11 0.11 0.09 0.09 0.14 0.25 0.38 0.43 0.43 0.39 0.33 0.29
2.31 2.33 2.32 2.40 2.36 2.20 1.96 1.67 1.46 1.33 1.24 1.14 0.96 0.86 0.80 0.80 0.78 0.78 0.74 0.65 0.58 0.47 0.46 0.44 0.43 0.33 0.28 0.25 0.23 0.17 0.15 0.14 0.14 0.11 0.10 0.11 0.21 0.41 0.52 0.48 0.39 0.35 0.34
2.47 2.39 2.41 2.47 2.47 2.33 2.07 1.86 1.59 1.45 1.36 1.31 1.16 1.05 1.01 0.92 0.85 0.80 0.74 0.68 0.67 0.57 0.55 0.50 0.42 0.34 0.28 0.24 0.24 0.24 0.21 0.20 0.18 0.17 0.15 0.13 0.19 0.34 0.45 0.46 0.46 0.46 0.45
2.44 2.46 2.51 2.43 2.40 2.39 2.26 2.01 1.72 1.56 1.43 1.35 1.35 1.23 1.13 1.04 0.94 0.92 0.82 0.73 0.67 0.64 0.62 0.57 0.49 0.44 0.37 0.31 0.27 0.26 0.25 0.22 0.20 0.21 0.20 0.16 0.16 0.22 0.32 0.42 0.51 0.56 0.58
2.18 2.39 2.53 2.51 2.41 2.32 2.32 2.24 1.93 1.61 1.54 1.49 1.43 1.39 1.30 1.18 1.07 1.01 0.91 0.84 0.75 0.70 0.66 0.66 0.58 0.56 0.51 0.46 0.36 0.30 0.27 0.25 0.21 0.20 0.19 0.20 0.19 0.19 0.23 0.34 0.47 0.58 0.67
1.95 2.17 2.39 2.59 2.57 2.42 2.33 2.36 2.29 1.97 1.67 1.49 1.46 1.45 1.42 1.33 1.22 1.12 1.06 0.93 0.81 0.78 0.77 0.79 0.76 0.72 0.62 0.56 0.49 0.43 0.38 0.35 0.29 0.25 0.22 0.21 0.23 0.23 0.24 0.30 0.40 0.52 0.67
1.82 2.00 2.18 2.31 2.49 2.48 2.36 2.28 2.29 2.20 1.96 1.70 1.50 1.43 1.40 1.34 1.32 1.30 1.25 1.19 1.03 0.97 0.93 0.87 0.84 0.80 0.68 0.62 0.58 0.54 0.49 0.45 0.41 0.37 0.34 0.31 0.29 0.26 0.25 0.29 0.36 0.46 0.59
1.71 1.92 2.17 2.14 2.25 2.47 2.61 2.47 2.29 2.19 2.02 1.82 1.60 1.41 1.35 1.38 1.37 1.33 1.25 1.26 1.26 1.14 1.03 0.97 0.89 0.82 0.71 0.67 0.67 0.62 0.56 0.53 0.49 0.47 0.44 0.42 0.41 0.38 0.35 0.35 0.33 0.34 0.41
1.72 1.88 2.12 2.13 2.22 2.43 2.69 2.69 2.55 2.35 2.08 1.92 1.69 1.46 1.34 1.32 1.39 1.33 1.25 1.27 1.29 1.22 1.07 0.99 0.93 0.89 0.78 0.76 0.75 0.67 0.62 0.58 0.56 0.53 0.48 0.46 0.45 0.45 0.44 0.41 0.38 0.37 0.37
1.85 1.88 2.02 2.13 2.24 2.33 2.42 2.39 2.28 2.23 2.15 2.02 1.86 1.71 1.53 1.43 1.45 1.46 1.37 1.34 1.34 1.27 1.17 1.15 1.16 1.07 0.96 0.95 0.89 0.71 0.61 0.58 0.55 0.53 0.50 0.47 0.43 0.42 0.40 0.39 0.38 0.36 0.37
1.76 1.83 1.99 2.13 2.19 2.17 2.26 2.40 2.31 2.35 2.34 2.28 2.17 1.99 1.81 1.66 1.60 1.57 1.56 1.55 1.49 1.40 1.32 1.27 1.27 1.21 1.11 1.11 1.08 1.01 0.77 0.61 0.52 0.49 0.49 0.46 0.47 0.46 0.42 0.40 0.39 0.38 0.35
1.63 1.86 1.97 2.04 2.15 2.17 2.37 2.76 2.71 2.58 2.51 2.44 2.34 2.21 2.04 1.90 1.81 1.67 1.61 1.68 1.64 1.54 1.44 1.39 1.36 1.32 1.29 1.26 1.20 1.24 1.01 0.72 0.57 0.52 0.49 0.45 0.46 0.50 0.51 0.49 0.45 0.40 0.36
1.44 1.70 1.97 2.08 2.20 2.35 2.55 2.76 2.79 2.54 2.35 2.31 2.30 2.29 2.23 2.01 1.92 1.85 1.77 1.71 1.72 1.69 1.56 1.52 1.50 1.44 1.40 1.34 1.27 1.14 1.06 0.90 0.81 0.64 0.51 0.50 0.49 0.47 0.48 0.50 0.49 0.47 0.46
1.30 1.48 1.73 2.00 2.11 2.34 2.51 2.59 2.73 2.53 2.26 2.29 2.28 2.23 2.23 2.13 1.95 1.88 1.82 1.71 1.62 1.60 1.61 1.59 1.56 1.51 1.40 1.29 1.21 1.14 1.07 0.92 0.79 0.75 0.59 0.49 0.50 0.47 0.46 0.48 0.51 0.52 0.53
1.14 1.26 1.42 1.65 1.77 1.89 2.09 2.30 2.46 2.48 2.38 2.29 2.16 2.10 2.06 2.03 1.99 1.93 1.87 1.77 1.62 1.53 1.48 1.48 1.50 1.49 1.46 1.36 1.26 1.19 1.13 1.04 0.90 0.86 0.80 0.63 0.57 0.52 0.51 0.53 0.53 0.53 0.55

GEFSSE_prec_meanprecacc_210.txt.gz
Total_Precipitation_Accumulation
0.06 0.13 0.36 0.45 0.53 0.53 0.50 0.47 0.46 0.47 0.48 0.50 0.49 0.47 0.46 0.46 0.47 0.41 0.40 0.36 0.36 0.42 0.51 0.58 0.55 0.49 0.43 0.38 0.34 0.27 0.22 0.18 0.18 0.17 0.16 0.19 0.21 0.21 0.17 0.17 0.21 0.25 0.32
0.06 0.13 0.34 0.45 0.57 0.56 0.57 0.53 0.50 0.47 0.52 0.57 0.60 0.57 0.53 0.48 0.47 0.41 0.38 0.37 0.37 0.42 0.53 0.56 0.52 0.41 0.29 0.21 0.18 0.16 0.14 0.12 0.09 0.06 0.04 0.06 0.10 0.13 0.13 0.13 0.16 0.20 0.24
0.06 0.14 0.34 0.49 0.58 0.59 0.60 0.56 0.52 0.49 0.56 0.65 0.72 0.66 0.57 0.48 0.45 0.44 0.38 0.36 0.40 0.49 0.53 0.51 0.44 0.33 0.24 0.20 0.15 0.10 0.09 0.08 0.06 0.03 0.03 0.06 0.09 0.12 0.12 0.13 0.16 0.21 0.23
0.11 0.17 0.33 0.56 0.61 0.62 0.63 0.62 0.60 0.58 0.57 0.64 0.74 0.68 0.60 0.55 0.53 0.47 0.42 0.38 0.41 0.45 0.44 0.42 0.35 0.27 0.19 0.14 0.12 0.10 0.08 0.07 0.05 0.04 0.07 0.08 0.09 0.15 0.17 0.18 0.20 0.23 0.26
0.21 0.26 0.44 0.64 0.72 0.68 0.68 0.65 0.66 0.66 0.65 0.66 0.70 0.69 0.63 0.58 0.58 0.54 0.47 0.40 0.38 0.41 0.41 0.36 0.28 0.22 0.16 0.12 0.10 0.10 0.09 0.08 0.05 0.04 0.08 0.10 0.12 0.21 0.26 0.24 0.25 0.26 0.26
0.31 0.44 0.65 0.80 0.83 0.80 0.75 0.71 0.72 0.76 0.80 0.78 0.77 0.73 0.68 0.64 0.64 0.62 0.51 0.39 0.36 0.36 0.37 0.34 0.27 0.22 0.16 0.12 0.09 0.08 0.09 0.08 0.04 0.04 0.06 0.10 0.14 0.28 0.30 0.26 0.28 0.28 0.29
0.40 0.59 0.84 1.00 1.00 0.95 0.89 0.89 0.87 0.90 0.92 0.90 0.87 0.82 0.73 0.70 0.69 0.65 0.53 0.39 0.36 0.36 0.37 0.33 0.28 0.24 0.20 0.16 0.12 0.10 0.08 0.06 0.04 0.04 0.07 0.10 0.18 0.30 0.28 0.27 0.31 0.33 0.36
0.66 0.85 1.06 1.22 1.19 1.07 0.98 0.93 0.91 0.96 0.97 0.95 0.88 0.85 0.80 0.75 0.73 0.69 0.58 0.45 0.40 0.43 0.44 0.39 0.33 0.28 0.22 0.18 0.15 0.11 0.07 0.05 0.05 0.05 0.07 0.10 0.19 0.32 0.29 0.26 0.28 0.33 0.38
1.16 1.27 1.32 1.36 1.30 1.25 1.09 0.97 0.91 0.90 0.95 0.98 0.94 0.90 0.87 0.84 0.84 0.75 0.65 0.56 0.49 0.49 0.48 0.44 0.37 0.30 0.26 0.22 0.17 0.11 0.07 0.05 0.05 0.05 0.06 0.09 0.19 0.35 0.38 0.36 0.37 0.38 0.38
1.61 1.69 1.69 1.62 1.52 1.41 1.28 1.06 0.94 0.93 0.93 0.96 0.94 0.85 0.78 0.78 0.78 0.71 0.59 0.57 0.54 0.52 0.46 0.41 0.37 0.36 0.29 0.24 0.19 0.12 0.08 0.07 0.05 0.05 0.07 0.12 0.24 0.43 0.50 0.48 0.48 0.44 0.38
1.95 1.98 2.04 1.99 1.82 1.68 1.47 1.18 1.06 1.04 1.01 0.96 0.92 0.81 0.80 0.81 0.77 0.64 0.53 0.48 0.49 0.48 0.44 0.42 0.39 0.36 0.32 0.25 0.19 0.14 0.11 0.09 0.06 0.05 0.08 0.17 0.31 0.43 0.45 0.47 0.46 0.38 0.32
2.11 2.13 2.16 2.21 2.15 2.03 1.77 1.48 1.34 1.20 1.12 0.99 0.85 0.84 0.77 0.78 0.81 0.67 0.60 0.52 0.48 0.46 0.43 0.44 0.43 0.40 0.34 0.26 0.21 0.16 0.14 0.12 0.11 0.09 0.10 0.16 0.29 0.41 0.46 0.46 0.43 0.37 0.31
2.32 2.34 2.33 2.42 2.37 2.21 1.96 1.69 1.48 1.35 1.28 1.18 1.00 0.92 0.84 0.84 0.82 0.81 0.77 0.68 0.60 0.50 0.49 0.46 0.46 0.36 0.31 0.28 0.26 0.19 0.16 0.16 0.14 0.12 0.11 0.13 0.24 0.44 0.55 0.51 0.42 0.38 0.35
2.48 2.40 2.43 2.49 2.49 2.35 2.08 1.87 1.60 1.47 1.39 1.35 1.22 1.12 1.07 0.99 0.92 0.85 0.77 0.70 0.69 0.60 0.57 0.52 0.43 0.36 0.30 0.26 0.26 0.25 0.22 0.21 0.19 0.18 0.16 0.14 0.21 0.37 0.48 0.49 0.48 0.48 0.46
2.44 2.47 2.52 2.45 2.42 2.40 2.28 2.03 1.73 1.58 1.45 1.38 1.40 1.29 1.21 1.14 1.04 1.00 0.87 0.77 0.69 0.66 0.64 0.59 0.51 0.46 0.40 0.34 0.29 0.28 0.27 0.23 0.21 0.22 0.21 0.18 0.17 0.25 0.36 0.44 0.53 0.59 0.61
2.18 2.40 2.54 2.52 2.43 2.34 2.34 2.26 1.95 1.62 1.55 1.50 1.46 1.43 1.36 1.28 1.20 1.14 1.00 0.90 0.80 0.73 0.69 0.68 0.61 0.58 0.55 0.50 0.41 0.34 0.31 0.27 0.23 0.21 0.20 0.21 0.21 0.21 0.26 0.37 0.49 0.61 0.70
1.95 2.17 2.40 2.60 2.58 2.43 2.35 2.38 2.31 1.99 1.69 1.51 1.49 1.49 1.46 1.39 1.29 1.21 1.15 1.02 0.89 0.84 0.81 0.82 0.79 0.75 0.67 0.61 0.53 0.48 0.43 0.38 0.32 0.26 0.23 0.22 0.25 0.26 0.27 0.32 0.42 0.55 0.70
1.82 2.00 2.19 2.32 2.51 2.49 2.38 2.30 2.30 2.21 1.99 1.73 1.53 1.48 1.46 1.40 1.37 1.34 1.29 1.26 1.13 1.06 1.01 0.93 0.89 0.84 0.74 0.68 0.63 0.59 0.54 0.50 0.46 0.41 0.36 0.32 0.31 0.28 0.27 0.31 0.39 0.48 0.62
1.71 1.92 2.18 2.15 2.27 2.50 2.64 2.49 2.31 2.20 2.04 1.87 1.64 1.46 1.42 1.44 1.43 1.38 1.28 1.29 1.34 1.25 1.14 1.07 0.96 0.89 0.78 0.74 0.74 0.68 0.62 0.58 0.54 0.52 0.51 0.47 0.44 0.40 0.37 0.37 0.35 0.35 0.43
1.72 1.88 2.13 2.14 2.23 2.45 2.72 2.72 2.57 2.36 2.10 1.96 1.73 1.51 1.41 1.38 1.45 1.38 1.29 1.30 1.33 1.31 1.20 1.13 1.04 0.98 0.88 0.86 0.84 0.76 0.70 0.64 0.61 0.57 0.53 0.52 0.51 0.48 0.46 0.43 0.39 0.38 0.38
1.85 1.88 2.02 2.14 2.25 2.35 2.46 2.43 2.30 2.24 2.16 2.04 1.90 1.76 1.59 1.50 1.51 1.51 1.41 1.38 1.39 1.33 1.27 1.27 1.29 1.18 1.07 1.07 1.01 0.83 0.72 0.67 0.61 0.57 0.54 0.51 0.47 0.46 0.43 0.41 0.39 0.37 0.37
1.76 1.83 1.99 2.14 2.20 2.18 2.29 2.43 2.34 2.36 2.35 2.31 2.22 2.04 1.87 1.73 1.66 1.62 1.61 1.59 1.53 1.43 1.38 1.35 1.36 1.31 1.21 1.21 1.20 1.13 0.90 0.73 0.61 0.54 0.52 0.49 0.50 0.49 0.45 0.43 0.42 0.39 0.36
1.64 1.86 1.97 2.05 2.15 2.18 2.38 2.79 2.72 2.59 2.52 2.46 2.37 2.24 2.08 1.96 1.87 1.71 1.66 1.73 1.69 1.57 1.48 1.44 1.42 1.39 1.39 1.36 1.30 1.35 1.11 0.81 0.66 0.58 0.52 0.47 0.49 0.54 0.54 0.52 0.48 0.43 0.38
1.44 1.70 1.97 2.08 2.20 2.36 2.56 2.77 2.81 2.56 2.36 2.32 2.32 2.31 2.26 2.05 1.95 1.88 1.81 1.76 1.77 1.73 1.61 1.56 1.53 1.48 1.48 1.45 1.37 1.23 1.14 0.96 0.85 0.69 0.55 0.52 0.51 0.50 0.51 0.53 0.52 0.50 0.49
1.31 1.48 1.73 2.00 2.11 2.34 2.52 2.60 2.75 2.56 2.29 2.31 2.30 2.25 2.27 2.16 1.98 1.91 1.84 1.74 1.64 1.62 1.64 1.64 1.61 1.56 1.46 1.36 1.29 1.20 1.13 0.98 0.83 0.78 0.63 0.51 0.52 0.49 0.48 0.50 0.53 0.55 0.56
1.14 1.26 1.42 1.65 1.77 1.90 2.10 2.31 2.47 2.49 2.40 2.31 2.18 2.11 2.08 2.06 2.02 1.96 1.90 1.79 1.64 1.54 1.49 1.51 1.54 1.54 1.52 1.42 1.32 1.24 1.17 1.09 0.95 0.89 0.82 0.65 0.60 0.54 0.53 0.54 0.54 0.55 0.57

GEFSSE_prec_meanprecacc_216.txt.gz
Total_Precipitation_Accumulation
0.06 0.14 0.37 0.47 0.54 0.55 0.53 0.50 0.49 0.49 0.51 0.51 0.51 0.48 0.47 0.47 0.49 0.44 0.42 0.38 0.39 0.46 0.55 0.60 0.56 0.50 0.43 0.39 0.35 0.29 0.25 0.21 0.20 0.19 0.17 0.20 0.22 0.22 0.18 0.18 0.22 0.26 0.34
0.06 0.14 0.35 0.46 0.59 0.58 0.58 0.55 0.51 0.50 0.54 0.58 0.62 0.59 0.54 0.50 0.49 0.43 0.41 0.39 0.40 0.45 0.55 0.59 0.54 0.43 0.30 0.22 0.19 0.17 0.15 0.13 0.10 0.07 0.05 0.06 0.10 0.14 0.15 0.14 0.17 0.22 0.25
0.06 0.14 0.35 0.50 0.60 0.61 0.62 0.58 0.54 0.51 0.58 0.67 0.73 0.68 0.60 0.51 0.49 0.47 0.40 0.39 0.43 0.51 0.56 0.54 0.46 0.35 0.25 0.21 0.16 0.11 0.10 0.08 0.06 0.04 0.04 0.06 0.09 0.13 0.13 0.14 0.18 0.23 0.25
0.11 0.17 0.34 0.57 0.63 0.64 0.65 0.64 0.62 0.60 0.60 0.67 0.76 0.71 0.63 0.59 0.57 0.50 0.44 0.41 0.44 0.49 0.48 0.45 0.36 0.29 0.21 0.15 0.13 0.12 0.10 0.08 0.06 0.04 0.07 0.08 0.10 0.16 0.18 0.20 0.22 0.25 0.29
0.21 0.26 0.45 0.66 0.74 0.70 0.70 0.68 0.69 0.69 0.68 0.69 0.73 0.72 0.66 0.62 0.63 0.59 0.51 0.44 0.42 0.45 0.45 0.39 0.30 0.23 0.17 0.13 0.11 0.11 0.11 0.09 0.05 0.04 0.08 0.10 0.13 0.22 0.27 0.27 0.27 0.28 0.28
0.31 0.44 0.66 0.81 0.84 0.81 0.77 0.73 0.75 0.79 0.84 0.82 0.81 0.76 0.72 0.67 0.68 0.66 0.55 0.43 0.40 0.40 0.41 0.37 0.29 0.24 0.18 0.13 0.10 0.10 0.10 0.09 0.05 0.04 0.06 0.10 0.14 0.30 0.32 0.28 0.30 0.31 0.31
0.40 0.59 0.84 1.01 1.01 0.96 0.90 0.90 0.89 0.93 0.96 0.94 0.90 0.85 0.77 0.74 0.74 0.68 0.56 0.42 0.40 0.40 0.42 0.37 0.31 0.26 0.22 0.17 0.13 0.11 0.09 0.07 0.04 0.05 0.07 0.11 0.19 0.32 0.31 0.29 0.33 0.35 0.38
0.66 0.85 1.07 1.23 1.20 1.08 0.98 0.93 0.93 0.99 1.00 0.98 0.91 0.89 0.85 0.80 0.79 0.74 0.62 0.49 0.45 0.47 0.50 0.45 0.38 0.30 0.25 0.21 0.17 0.13 0.08 0.06 0.05 0.05 0.08 0.10 0.21 0.35 0.32 0.28 0.31 0.35 0.41
1.16 1.28 1.32 1.36 1.30 1.25 1.10 0.97 0.93 0.95 0.99 1.00 0.97 0.92 0.89 0.87 0.89 0.81 0.70 0.61 0.54 0.53 0.53 0.51 0.44 0.35 0.32 0.27 0.19 0.12 0.08 0.06 0.05 0.05 0.06 0.10 0.21 0.39 0.42 0.39 0.40 0.41 0.41
1.61 1.70 1.69 1.63 1.52 1.42 1.29 1.07 0.96 0.96 0.97 0.98 0.96 0.87 0.80 0.80 0.81 0.76 0.65 0.63 0.60 0.57 0.52 0.48 0.45 0.42 0.37 0.31 0.22 0.13 0.09 0.08 0.06 0.05 0.07 0.13 0.27 0.47 0.55 0.52 0.51 0.47 0.41
1.96 1.98 2.05 2.01 1.83 1.70 1.48 1.18 1.07 1.06 1.05 0.98 0.94 0.83 0.81 0.83 0.80 0.68 0.59 0.53 0.53 0.53 0.50 0.48 0.46 0.43 0.39 0.32 0.23 0.16 0.12 0.10 0.07 0.06 0.09 0.18 0.34 0.48 0.50 0.51 0.51 0.42 0.36
2.12 2.13 2.17 2.22 2.17 2.05 1.80 1.51 1.36 1.23 1.15 1.00 0.86 0.86 0.79 0.80 0.83 0.70 0.63 0.55 0.52 0.51 0.48 0.50 0.49 0.45 0.39 0.32 0.25 0.18 0.15 0.14 0.13 0.10 0.11 0.19 0.33 0.46 0.50 0.50 0.47 0.41 0.36
2.33 2.35 2.35 2.43 2.38 2.23 1.98 1.70 1.51 1.39 1.30 1.19 1.01 0.93 0.86 0.86 0.85 0.85 0.80 0.71 0.63 0.55 0.54 0.51 0.51 0.40 0.34 0.31 0.29 0.21 0.18 0.17 0.16 0.13 0.13 0.17 0.29 0.49 0.59 0.55 0.46 0.42 0.40
2.50 2.42 2.45 2.51 2.50 2.36 2.09 1.89 1.62 1.50 1.42 1.36 1.22 1.13 1.10 1.01 0.94 0.89 0.82 0.73 0.72 0.62 0.61 0.56 0.48 0.39 0.33 0.28 0.29 0.27 0.24 0.23 0.21 0.19 0.18 0.18 0.25 0.42 0.53 0.54 0.52 0.51 0.50
2.45 2.49 2.55 2.47 2.43 2.42 2.29 2.05 1.76 1.60 1.48 1.40 1.40 1.30 1.23 1.16 1.06 1.03 0.95 0.85 0.73 0.68 0.67 0.63 0.55 0.50 0.44 0.37 0.31 0.31 0.29 0.26 0.24 0.24 0.23 0.19 0.20 0.28 0.39 0.49 0.58 0.63 0.65
2.19 2.41 2.55 2.54 2.44 2.36 2.36 2.28 1.98 1.64 1.57 1.53 1.47 1.44 1.37 1.30 1.23 1.18 1.08 1.02 0.89 0.77 0.72 0.72 0.65 0.62 0.59 0.54 0.43 0.37 0.33 0.29 0.25 0.23 0.22 0.22 0.23 0.24 0.28 0.40 0.53 0.66 0.77
1.96 2.19 2.41 2.61 2.60 2.45 2.37 2.40 2.35 2.02 1.71 1.52 1.50 1.50 1.48 1.42 1.34 1.27 1.23 1.11 0.96 0.89 0.85 0.86 0.84 0.80 0.72 0.66 0.57 0.50 0.45 0.41 0.35 0.30 0.27 0.25 0.26 0.28 0.30 0.36 0.47 0.60 0.76
1.83 2.01 2.20 2.32 2.52 2.50 2.40 2.34 2.37 2.25 2.01 1.75 1.54 1.49 1.48 1.43 1.43 1.41 1.35 1.32 1.17 1.09 1.04 0.97 0.95 0.91 0.80 0.73 0.67 0.62 0.57 0.53 0.49 0.45 0.41 0.37 0.35 0.30 0.31 0.36 0.43 0.54 0.67
1.72 1.92 2.18 2.15 2.27 2.50 2.65 2.54 2.35 2.23 2.06 1.89 1.66 1.47 1.44 1.48 1.50 1.44 1.32 1.33 1.37 1.27 1.16 1.10 1.03 0.99 0.90 0.83 0.79 0.72 0.66 0.62 0.58 0.56 0.56 0.52 0.48 0.44 0.40 0.40 0.39 0.40 0.49
1.72 1.88 2.13 2.15 2.24 2.46 2.73 2.73 2.59 2.38 2.12 1.97 1.74 1.52 1.43 1.42 1.50 1.43 1.32 1.32 1.36 1.33 1.22 1.16 1.08 1.04 0.99 0.97 0.93 0.83 0.76 0.69 0.65 0.62 0.58 0.58 0.56 0.54 0.49 0.46 0.42 0.41 0.42
1.85 1.88 2.02 2.14 2.25 2.35 2.47 2.44 2.31 2.25 2.17 2.06 1.91 1.76 1.61 1.53 1.54 1.55 1.45 1.41 1.42 1.36 1.29 1.30 1.33 1.25 1.14 1.14 1.07 0.90 0.79 0.74 0.67 0.62 0.58 0.55 0.53 0.53 0.50 0.46 0.42 0.39 0.39
1.76 1.83 1.99 2.15 2.20 2.19 2.29 2.44 2.35 2.37 2.36 2.33 2.23 2.06 1.89 1.76 1.70 1.67 1.65 1.63 1.56 1.46 1.40 1.38 1.40 1.38 1.30 1.30 1.27 1.19 0.97 0.81 0.68 0.60 0.58 0.54 0.54 0.54 0.51 0.50 0.48 0.43 0.38
1.64 1.86 1.97 2.05 2.16 2.18 2.39 2.79 2.74 2.61 2.53 2.48 2.38 2.26 2.12 2.01 1.93 1.77 1.70 1.77 1.73 1.60 1.50 1.46 1.44 1.42 1.45 1.44 1.37 1.42 1.19 0.89 0.73 0.65 0.59 0.55 0.54 0.58 0.59 0.59 0.56 0.51 0.44
1.45 1.70 1.98 2.08 2.21 2.36 2.57 2.78 2.82 2.57 2.38 2.34 2.34 2.33 2.29 2.09 2.01 1.94 1.86 1.80 1.81 1.77 1.63 1.58 1.56 1.51 1.52 1.51 1.44 1.30 1.21 1.03 0.92 0.76 0.63 0.59 0.58 0.55 0.55 0.57 0.58 0.57 0.55
1.31 1.48 1.73 2.00 2.11 2.35 2.52 2.61 2.76 2.57 2.30 2.32 2.32 2.28 2.30 2.20 2.02 1.97 1.91 1.79 1.69 1.66 1.67 1.67 1.63 1.59 1.50 1.41 1.35 1.27 1.20 1.05 0.90 0.85 0.71 0.59 0.60 0.56 0.54 0.55 0.58 0.59 0.61
1.14 1.26 1.42 1.65 1.78 1.90 2.10 2.31 2.48 2.49 2.41 2.32 2.20 2.15 2.13 2.10 2.06 2.01 1.98 1.85 1.69 1.58 1.53 1.55 1.57 1.57 1.55 1.47 1.37 1.30 1.24 1.17 1.02 0.97 0.90 0.72 0.66 0.62 0.59 0.59 0.57 0.57 0.59

GEFSSE_prec_meanprecacc_222.txt.gz
Total_Precipitation_Accumulation
0.06 0.15 0.39 0.49 0.55 0.57 0.55 0.52 0.51 0.52 0.53 0.53 0.53 0.50 0.49 0.48 0.51 0.46 0.44 0.40 0.42 0.50 0.59 0.63 0.58 0.51 0.45 0.41 0.37 0.31 0.27 0.24 0.22 0.20 0.18 0.21 0.23 0.23 0.19 0.19 0.24 0.29 0.36
0.06 0.14 0.36 0.47 0.60 0.60 0.60 0.56 0.52 0.51 0.56 0.60 0.64 0.61 0.56 0.52 0.51 0.46 0.43 0.42 0.43 0.50 0.61 0.64 0.56 0.44 0.32 0.24 0.22 0.19 0.17 0.15 0.12 0.07 0.05 0.07 0.11 0.15 0.16 0.15 0.18 0.24 0.28
0.07 0.15 0.36 0.51 0.61 0.63 0.63 0.59 0.55 0.52 0.60 0.70 0.76 0.71 0.62 0.53 0.51 0.49 0.43 0.42 0.47 0.56 0.60 0.58 0.49 0.37 0.26 0.22 0.17 0.13 0.11 0.09 0.07 0.04 0.04 0.06 0.10 0.14 0.14 0.15 0.20 0.25 0.28
0.11 0.17 0.35 0.59 0.65 0.66 0.66 0.65 0.62 0.61 0.61 0.69 0.79 0.73 0.65 0.61 0.60 0.53 0.48 0.46 0.49 0.53 0.51 0.48 0.40 0.31 0.22 0.16 0.14 0.13 0.12 0.09 0.06 0.04 0.07 0.09 0.11 0.17 0.20 0.22 0.24 0.28 0.31
0.22 0.27 0.45 0.67 0.76 0.72 0.71 0.68 0.70 0.70 0.69 0.71 0.76 0.75 0.68 0.64 0.65 0.62 0.54 0.49 0.48 0.50 0.47 0.41 0.32 0.26 0.19 0.14 0.12 0.12 0.12 0.10 0.06 0.05 0.08 0.10 0.14 0.24 0.29 0.28 0.29 0.29 0.29
0.31 0.45 0.67 0.83 0.86 0.83 0.78 0.74 0.76 0.81 0.86 0.84 0.83 0.79 0.75 0.70 0.71 0.69 0.60 0.47 0.45 0.44 0.44 0.39 0.30 0.26 0.20 0.14 0.11 0.10 0.11 0.10 0.05 0.04 0.06 0.10 0.16 0.31 0.33 0.29 0.31 0.32 0.33
0.40 0.60 0.85 1.02 1.02 0.97 0.91 0.90 0.90 0.94 0.98 0.97 0.93 0.89 0.81 0.79 0.77 0.71 0.59 0.46 0.45 0.44 0.46 0.41 0.32 0.27 0.24 0.19 0.14 0.12 0.10 0.07 0.05 0.05 0.08 0.11 0.21 0.35 0.33 0.31 0.37 0.38 0.40
0.67 0.86 1.08 1.24 1.20 1.08 0.99 0.94 0.94 1.00 1.02 1.02 0.94 0.91 0.87 0.85 0.84 0.78 0.65 0.53 0.49 0.51 0.54 0.49 0.40 0.33 0.27 0.23 0.18 0.14 0.09 0.06 0.05 0.05 0.08 0.11 0.23 0.38 0.36 0.31 0.34 0.39 0.44
1.16 1.28 1.34 1.38 1.31 1.26 1.11 0.98 0.94 0.97 1.03 1.04 1.00 0.95 0.92 0.91 0.93 0.84 0.73 0.65 0.59 0.57 0.57 0.55 0.48 0.40 0.35 0.30 0.21 0.13 0.08 0.06 0.05 0.05 0.06 0.11 0.23 0.42 0.47 0.42 0.44 0.45 0.45
1.62 1.71 1.71 1.65 1.54 1.43 1.29 1.08 0.96 0.98 1.02 1.03 1.00 0.90 0.82 0.83 0.84 0.78 0.67 0.67 0.64 0.61 0.57 0.52 0.50 0.49 0.43 0.37 0.24 0.13 0.09 0.08 0.06 0.06 0.07 0.14 0.29 0.51 0.62 0.58 0.56 0.51 0.45
1.97 2.00 2.07 2.03 1.85 1.71 1.50 1.20 1.08 1.09 1.09 1.01 0.97 0.85 0.84 0.86 0.83 0.70 0.61 0.56 0.56 0.56 0.54 0.53 0.51 0.49 0.44 0.38 0.27 0.17 0.12 0.10 0.07 0.06 0.09 0.20 0.37 0.52 0.57 0.58 0.56 0.47 0.40
2.13 2.16 2.20 2.25 2.20 2.07 1.82 1.53 1.39 1.26 1.20 1.05 0.89 0.88 0.82 0.83 0.86 0.73 0.66 0.57 0.53 0.53 0.52 0.54 0.57 0.53 0.45 0.37 0.31 0.21 0.17 0.14 0.13 0.11 0.12 0.21 0.36 0.52 0.57 0.56 0.54 0.46 0.39
2.35 2.39 2.38 2.46 2.41 2.25 2.00 1.73 1.53 1.42 1.35 1.23 1.03 0.95 0.88 0.88 0.87 0.87 0.83 0.74 0.65 0.57 0.56 0.54 0.56 0.47 0.40 0.36 0.34 0.25 0.21 0.19 0.16 0.14 0.14 0.19 0.36 0.57 0.66 0.64 0.54 0.48 0.44
2.51 2.45 2.48 2.54 2.51 2.37 2.11 1.90 1.64 1.52 1.45 1.40 1.24 1.14 1.11 1.03 0.96 0.91 0.84 0.76 0.75 0.65 0.63 0.58 0.50 0.43 0.38 0.33 0.33 0.31 0.28 0.26 0.22 0.19 0.18 0.20 0.32 0.51 0.60 0.62 0.60 0.58 0.55
2.46 2.51 2.57 2.51 2.46 2.44 2.31 2.06 1.77 1.62 1.50 1.43 1.44 1.32 1.24 1.18 1.08 1.05 0.96 0.87 0.76 0.73 0.70 0.65 0.57 0.53 0.48 0.41 0.35 0.35 0.34 0.30 0.27 0.25 0.24 0.21 0.23 0.33 0.45 0.56 0.66 0.71 0.71
2.19 2.42 2.57 2.56 2.48 2.39 2.39 2.30 1.99 1.66 1.59 1.55 1.50 1.47 1.39 1.32 1.24 1.19 1.08 1.03 0.91 0.81 0.76 0.74 0.67 0.65 0.64 0.58 0.47 0.41 0.38 0.34 0.29 0.26 0.25 0.25 0.25 0.27 0.33 0.47 0.61 0.73 0.85
1.96 2.19 2.42 2.63 2.62 2.47 2.39 2.43 2.37 2.03 1.72 1.53 1.52 1.53 1.51 1.44 1.36 1.29 1.25 1.13 1.00 0.93 0.89 0.88 0.85 0.82 0.76 0.70 0.61 0.55 0.49 0.45 0.39 0.34 0.32 0.30 0.30 0.31 0.33 0.42 0.55 0.68 0.85
1.83 2.01 2.20 2.33 2.53 2.52 2.41 2.37 2.39 2.27 2.03 1.77 1.58 1.54 1.51 1.45 1.46 1.45 1.38 1.35 1.21 1.13 1.08 0.99 0.96 0.93 0.83 0.77 0.70 0.66 0.61 0.57 0.53 0.50 0.47 0.43 0.40 0.35 0.35 0.41 0.50 0.60 0.74
1.72 1.93 2.19 2.16 2.28 2.51 2.67 2.55 2.38 2.26 2.09 1.92 1.72 1.52 1.45 1.50 1.53 1.50 1.37 1.36 1.40 1.30 1.19 1.12 1.05 1.01 0.93 0.87 0.84 0.77 0.71 0.67 0.63 0.62 0.62 0.58 0.55 0.50 0.44 0.45 0.45 0.46 0.55
1.73 1.88 2.13 2.16 2.25 2.47 2.74 2.74 2.61 2.41 2.15 2.01 1.78 1.55 1.45 1.44 1.54 1.48 1.37 1.36 1.41 1.38 1.25 1.18 1.09 1.06 1.01 1.02 0.99 0.90 0.82 0.75 0.73 0.70 0.67 0.66 0.64 0.59 0.55 0.51 0.46 0.45 0.47
1.85 1.88 2.03 2.15 2.26 2.36 2.48 2.45 2.32 2.26 2.20 2.10 1.94 1.78 1.63 1.55 1.58 1.58 1.48 1.44 1.45 1.40 1.32 1.33 1.36 1.27 1.16 1.16 1.10 0.93 0.83 0.78 0.73 0.71 0.69 0.62 0.59 0.58 0.56 0.53 0.47 0.42 0.43
1.76 1.83 2.00 2.15 2.21 2.20 2.30 2.44 2.35 2.37 2.37 2.34 2.25 2.08 1.90 1.77 1.72 1.68 1.67 1.65 1.59 1.49 1.44 1.40 1.43 1.41 1.32 1.31 1.28 1.20 0.99 0.85 0.74 0.67 0.66 0.61 0.58 0.58 0.56 0.57 0.55 0.48 0.41
1.64 1.86 1.97 2.06 2.17 2.19 2.40 2.80 2.74 2.61 2.54 2.49 2.39 2.27 2.13 2.01 1.93 1.77 1.72 1.79 1.76 1.63 1.53 1.48 1.46 1.45 1.48 1.45 1.39 1.44 1.21 0.92 0.77 0.70 0.66 0.61 0.59 0.61 0.63 0.63 0.64 0.58 0.48
1.45 1.70 1.98 2.09 2.22 2.38 2.58 2.79 2.83 2.58 2.38 2.34 2.35 2.34 2.30 2.09 2.01 1.95 1.87 1.83 1.84 1.80 1.67 1.61 1.58 1.53 1.55 1.53 1.46 1.32 1.23 1.05 0.95 0.80 0.69 0.65 0.63 0.60 0.59 0.61 0.63 0.65 0.64
1.31 1.48 1.74 2.01 2.12 2.35 2.53 2.62 2.77 2.58 2.31 2.33 2.33 2.28 2.31 2.21 2.03 1.97 1.91 1.81 1.71 1.69 1.70 1.70 1.66 1.62 1.53 1.44 1.38 1.29 1.22 1.07 0.92 0.88 0.75 0.64 0.65 0.62 0.59 0.60 0.64 0.68 0.70
1.14 1.27 1.43 1.66 1.78 1.90 2.11 2.32 2.48 2.50 2.42 2.34 2.21 2.15 2.14 2.12 2.07 2.02 1.99 1.87 1.72 1.61 1.56 1.58 1.61 1.61 1.58 1.49 1.39 1.33 1.27 1.20 1.06 1.01 0.94 0.76 0.72 0.68 0.66 0.66 0.64 0.66 0.67

GEFSSE_prec_meanprecacc_228.txt.gz
Total_Precipitation_Accumulation
0.07 0.15 0.40 0.50 0.56 0.57 0.56 0.54 0.52 0.53 0.53 0.55 0.54 0.52 0.51 0.50 0.53 0.49 0.46 0.42 0.44 0.53 0.63 0.65 0.60 0.53 0.47 0.43 0.40 0.33 0.28 0.25 0.23 0.20 0.18 0.21 0.24 0.24 0.20 0.21 0.27 0.32 0.38
0.06 0.14 0.37 0.47 0.60 0.60 0.61 0.57 0.53 0.52 0.57 0.62 0.66 0.63 0.58 0.54 0.54 0.49 0.45 0.45 0.47 0.53 0.65 0.66 0.58 0.47 0.34 0.27 0.24 0.21 0.19 0.15 0.12 0.08 0.05 0.07 0.12 0.16 0.17 0.17 0.21 0.28 0.30
0.07 0.15 0.36 0.52 0.62 0.64 0.64 0.60 0.56 0.53 0.60 0.71 0.77 0.74 0.65 0.55 0.53 0.52 0.46 0.46 0.51 0.60 0.63 0.60 0.52 0.39 0.29 0.24 0.19 0.15 0.14 0.10 0.07 0.04 0.04 0.07 0.11 0.15 0.15 0.17 0.22 0.27 0.30
0.11 0.18 0.35 0.60 0.67 0.67 0.67 0.66 0.63 0.62 0.61 0.70 0.81 0.76 0.67 0.63 0.62 0.55 0.50 0.50 0.54 0.58 0.56 0.50 0.42 0.33 0.25 0.19 0.16 0.15 0.13 0.10 0.06 0.05 0.08 0.10 0.12 0.19 0.21 0.23 0.26 0.30 0.34
0.22 0.27 0.46 0.68 0.77 0.73 0.72 0.69 0.71 0.71 0.70 0.71 0.76 0.76 0.70 0.66 0.67 0.64 0.57 0.54 0.53 0.55 0.51 0.44 0.35 0.28 0.22 0.17 0.14 0.14 0.13 0.10 0.06 0.05 0.09 0.12 0.16 0.26 0.30 0.29 0.30 0.31 0.31
0.32 0.46 0.68 0.84 0.88 0.84 0.79 0.74 0.77 0.81 0.87 0.85 0.84 0.80 0.77 0.73 0.73 0.70 0.62 0.51 0.49 0.48 0.47 0.42 0.32 0.27 0.22 0.17 0.14 0.12 0.12 0.10 0.06 0.05 0.07 0.11 0.17 0.34 0.35 0.31 0.33 0.33 0.34
0.41 0.61 0.86 1.04 1.05 0.98 0.92 0.91 0.91 0.95 0.99 0.99 0.95 0.90 0.83 0.81 0.80 0.74 0.62 0.50 0.49 0.47 0.49 0.44 0.35 0.29 0.25 0.20 0.17 0.13 0.10 0.08 0.05 0.06 0.10 0.14 0.23 0.37 0.35 0.34 0.39 0.40 0.43
0.68 0.88 1.09 1.26 1.22 1.10 1.00 0.96 0.95 1.01 1.03 1.04 0.96 0.94 0.90 0.88 0.87 0.81 0.67 0.56 0.54 0.55 0.57 0.52 0.44 0.34 0.28 0.24 0.19 0.15 0.10 0.06 0.06 0.06 0.11 0.14 0.25 0.40 0.38 0.33 0.38 0.43 0.48
1.19 1.32 1.37 1.40 1.32 1.27 1.12 0.99 0.95 0.99 1.05 1.06 1.02 0.97 0.95 0.96 0.99 0.89 0.77 0.69 0.63 0.61 0.61 0.58 0.51 0.43 0.37 0.31 0.22 0.14 0.09 0.06 0.05 0.06 0.07 0.12 0.25 0.44 0.50 0.45 0.49 0.50 0.49
1.64 1.74 1.75 1.69 1.56 1.44 1.31 1.08 0.97 0.99 1.03 1.05 1.03 0.92 0.84 0.88 0.92 0.83 0.71 0.70 0.68 0.65 0.60 0.55 0.52 0.52 0.46 0.39 0.25 0.14 0.09 0.08 0.06 0.06 0.08 0.16 0.30 0.53 0.65 0.62 0.63 0.57 0.50
2.00 2.04 2.12 2.08 1.89 1.74 1.51 1.20 1.08 1.09 1.10 1.03 1.00 0.88 0.86 0.90 0.88 0.75 0.65 0.59 0.58 0.58 0.56 0.55 0.54 0.52 0.48 0.41 0.29 0.18 0.13 0.10 0.07 0.07 0.10 0.21 0.39 0.55 0.62 0.63 0.63 0.54 0.46
2.17 2.20 2.25 2.30 2.25 2.11 1.85 1.56 1.40 1.27 1.22 1.07 0.93 0.92 0.86 0.87 0.91 0.80 0.71 0.61 0.56 0.54 0.53 0.56 0.59 0.56 0.49 0.41 0.33 0.22 0.17 0.15 0.14 0.12 0.13 0.22 0.38 0.55 0.62 0.62 0.59 0.53 0.45
2.37 2.42 2.42 2.51 2.46 2.30 2.04 1.75 1.55 1.44 1.38 1.26 1.06 0.98 0.92 0.93 0.92 0.93 0.88 0.78 0.68 0.58 0.58 0.56 0.58 0.49 0.43 0.40 0.37 0.27 0.22 0.21 0.18 0.15 0.15 0.20 0.38 0.61 0.72 0.70 0.60 0.53 0.49
2.52 2.46 2.51 2.57 2.55 2.41 2.15 1.94 1.66 1.54 1.48 1.44 1.29 1.17 1.14 1.07 1.01 0.95 0.88 0.79 0.78 0.68 0.66 0.62 0.54 0.45 0.41 0.36 0.36 0.34 0.30 0.28 0.25 0.22 0.20 0.21 0.33 0.54 0.66 0.68 0.66 0.62 0.60
2.46 2.51 2.58 2.53 2.49 2.47 2.36 2.11 1.81 1.64 1.52 1.46 1.48 1.36 1.28 1.21 1.12 1.09 1.00 0.89 0.79 0.76 0.75 0.72 0.63 0.57 0.51 0.45 0.40 0.39 0.38 0.33 0.30 0.29 0.27 0.22 0.24 0.36 0.49 0.62 0.74 0.77 0.76
2.20 2.43 2.58 2.57 2.49 2.42 2.43 2.34 2.04 1.70 1.61 1.58 1.52 1.49 1.43 1.35 1.28 1.22 1.11 1.06 0.94 0.85 0.81 0.80 0.71 0.69 0.68 0.64 0.53 0.46 0.43 0.39 0.34 0.30 0.29 0.27 0.27 0.29 0.38 0.54 0.68 0.80 0.90
1.97 2.19 2.43 2.63 2.63 2.48 2.42 2.47 2.42 2.08 1.77 1.56 1.54 1.55 1.53 1.46 1.39 1.32 1.27 1.16 1.02 0.95 0.92 0.94 0.90 0.85 0.79 0.74 0.66 0.61 0.56 0.51 0.44 0.39 0.36 0.33 0.33 0.34 0.38 0.48 0.62 0.74 0.89
1.83 2.01 2.20 2.34 2.54 2.52 2.42 2.39 2.42 2.32 2.07 1.81 1.60 1.56 1.53 1.46 1.47 1.47 1.42 1.39 1.24 1.15 1.10 1.03 1.00 0.95 0.85 0.79 0.73 0.70 0.66 0.63 0.59 0.56 0.53 0.48 0.45 0.39 0.39 0.45 0.55 0.66 0.80
1.72 1.93 2.19 2.16 2.29 2.52 2.67 2.57 2.39 2.29 2.14 1.97 1.75 1.54 1.46 1.52 1.55 1.51 1.38 1.39 1.45 1.35 1.21 1.15 1.08 1.03 0.94 0.89 0.86 0.80 0.75 0.71 0.68 0.67 0.67 0.64 0.60 0.55 0.49 0.50 0.50 0.52 0.62
1.73 1.89 2.14 2.16 2.25 2.47 2.75 2.75 2.62 2.43 2.18 2.06 1.83 1.57 1.46 1.46 1.56 1.50 1.38 1.38 1.43 1.40 1.28 1.20 1.11 1.07 1.03 1.04 1.00 0.91 0.84 0.78 0.75 0.73 0.70 0.70 0.69 0.64 0.60 0.56 0.51 0.50 0.54
1.85 1.88 2.03 2.15 2.26 2.36 2.48 2.45 2.33 2.28 2.22 2.13 1.97 1.81 1.66 1.58 1.61 1.60 1.49 1.46 1.47 1.42 1.35 1.35 1.38 1.28 1.18 1.17 1.11 0.94 0.83 0.79 0.74 0.73 0.71 0.66 0.63 0.64 0.63 0.61 0.54 0.49 0.49
1.77 1.83 2.00 2.16 2.22 2.20 2.31 2.46 2.37 2.39 2.38 2.37 2.29 2.12 1.94 1.81 1.75 1.70 1.68 1.67 1.60 1.51 1.45 1.42 1.45 1.44 1.34 1.33 1.29 1.21 1.00 0.86 0.75 0.68 0.68 0.63 0.61 0.63 0.62 0.64 0.63 0.55 0.46
1.64 1.86 1.97 2.06 2.17 2.20 2.41 2.81 2.76 2.63 2.55 2.51 2.42 2.31 2.17 2.05 1.96 1.79 1.73 1.80 1.77 1.64 1.55 1.49 1.47 1.47 1.50 1.47 1.40 1.45 1.22 0.93 0.78 0.71 0.67 0.63 0.62 0.65 0.67 0.68 0.69 0.64 0.53
1.45 1.71 1.98 2.09 2.22 2.38 2.59 2.80 2.85 2.60 2.40 2.36 2.37 2.36 2.33 2.13 2.04 1.97 1.89 1.84 1.85 1.81 1.68 1.62 1.59 1.55 1.57 1.55 1.48 1.33 1.24 1.05 0.96 0.82 0.70 0.66 0.65 0.62 0.63 0.65 0.68 0.70 0.68
1.31 1.48 1.74 2.01 2.12 2.36 2.54 2.63 2.79 2.60 2.33 2.35 2.35 2.31 2.34 2.24 2.06 2.01 1.94 1.83 1.73 1.70 1.72 1.72 1.67 1.63 1.55 1.45 1.39 1.31 1.24 1.08 0.93 0.89 0.76 0.66 0.67 0.64 0.63 0.64 0.69 0.73 0.75
1.15 1.27 1.43 1.66 1.78 1.91 2.11 2.33 2.50 2.52 2.44 2.35 2.23 2.18 2.17 2.14 2.09 2.05 2.02 1.89 1.74 1.63 1.57 1.59 1.63 1.62 1.60 1.51 1.40 1.33 1.28 1.21 1.07 1.02 0.95 0.78 0.74 0.71 0.69 0.70 0.69 0.70 0.72

GEFSSE_prec_meanprecacc_234.txt.gz
Total_Precipitation_Accumulation
0.08 0.16 0.41 0.51 0.57 0.59 0.57 0.55 0.53 0.53 0.54 0.55 0.55 0.53 0.51 0.51 0.55 0.50 0.47 0.43 0.46 0.55 0.64 0.67 0.62 0.55 0.47 0.44 0.41 0.34 0.30 0.26 0.24 0.21 0.18 0.22 0.25 0.26 0.21 0.22 0.27 0.33 0.40
0.07 0.15 0.38 0.49 0.62 0.62 0.62 0.58 0.54 0.53 0.57 0.62 0.66 0.64 0.58 0.54 0.54 0.50 0.47 0.47 0.49 0.55 0.67 0.69 0.61 0.49 0.36 0.28 0.25 0.22 0.20 0.16 0.13 0.08 0.05 0.07 0.13 0.17 0.18 0.18 0.22 0.30 0.33
0.08 0.16 0.37 0.53 0.63 0.65 0.65 0.61 0.56 0.54 0.61 0.72 0.78 0.75 0.66 0.56 0.54 0.54 0.49 0.50 0.55 0.63 0.66 0.62 0.54 0.42 0.31 0.25 0.20 0.16 0.15 0.11 0.08 0.04 0.04 0.07 0.12 0.16 0.17 0.18 0.23 0.30 0.32
0.12 0.19 0.36 0.62 0.68 0.68 0.68 0.67 0.64 0.62 0.62 0.71 0.82 0.77 0.68 0.64 0.63 0.57 0.53 0.54 0.58 0.61 0.58 0.53 0.45 0.36 0.26 0.20 0.18 0.17 0.14 0.11 0.07 0.05 0.08 0.10 0.13 0.21 0.23 0.24 0.27 0.32 0.35
0.22 0.29 0.48 0.70 0.80 0.75 0.73 0.70 0.72 0.72 0.71 0.73 0.78 0.78 0.72 0.68 0.69 0.66 0.59 0.57 0.56 0.58 0.53 0.46 0.37 0.29 0.22 0.18 0.16 0.16 0.14 0.11 0.06 0.05 0.09 0.12 0.17 0.29 0.32 0.31 0.31 0.33 0.33
0.33 0.47 0.70 0.87 0.91 0.87 0.81 0.76 0.78 0.82 0.88 0.86 0.85 0.82 0.78 0.74 0.75 0.73 0.64 0.53 0.51 0.50 0.49 0.44 0.34 0.28 0.23 0.18 0.16 0.14 0.14 0.12 0.06 0.05 0.08 0.12 0.18 0.36 0.38 0.33 0.34 0.35 0.37
0.43 0.62 0.88 1.07 1.09 1.02 0.94 0.93 0.93 0.96 1.00 1.00 0.96 0.92 0.84 0.83 0.82 0.76 0.64 0.52 0.51 0.50 0.51 0.46 0.36 0.29 0.26 0.22 0.19 0.15 0.12 0.09 0.05 0.06 0.10 0.14 0.24 0.39 0.37 0.36 0.41 0.44 0.46
0.70 0.89 1.11 1.28 1.25 1.12 1.02 0.97 0.96 1.03 1.05 1.04 0.98 0.95 0.92 0.90 0.89 0.83 0.70 0.59 0.57 0.58 0.59 0.53 0.45 0.35 0.29 0.25 0.21 0.17 0.11 0.07 0.06 0.07 0.11 0.14 0.27 0.42 0.40 0.36 0.41 0.47 0.53
1.20 1.34 1.39 1.42 1.35 1.29 1.14 1.01 0.97 1.01 1.07 1.08 1.03 0.98 0.97 0.97 1.01 0.91 0.80 0.73 0.66 0.64 0.64 0.60 0.52 0.44 0.38 0.32 0.23 0.16 0.10 0.07 0.06 0.06 0.07 0.12 0.26 0.47 0.52 0.48 0.52 0.54 0.54
1.66 1.76 1.77 1.72 1.58 1.45 1.32 1.10 0.99 1.01 1.04 1.06 1.04 0.94 0.86 0.90 0.95 0.87 0.75 0.75 0.72 0.68 0.63 0.57 0.54 0.53 0.47 0.40 0.26 0.15 0.10 0.09 0.07 0.06 0.08 0.16 0.33 0.56 0.68 0.65 0.67 0.63 0.55
2.02 2.07 2.14 2.10 1.91 1.75 1.52 1.21 1.09 1.10 1.11 1.05 1.01 0.89 0.88 0.93 0.93 0.79 0.69 0.63 0.61 0.61 0.58 0.57 0.56 0.55 0.50 0.43 0.31 0.19 0.13 0.11 0.08 0.07 0.11 0.23 0.42 0.61 0.67 0.66 0.67 0.59 0.50
2.21 2.25 2.29 2.32 2.27 2.13 1.87 1.56 1.41 1.28 1.22 1.08 0.93 0.93 0.87 0.89 0.94 0.84 0.77 0.65 0.59 0.56 0.55 0.58 0.61 0.59 0.51 0.43 0.36 0.23 0.18 0.15 0.14 0.12 0.14 0.24 0.41 0.60 0.67 0.65 0.61 0.56 0.47
2.38 2.44 2.44 2.52 2.47 2.33 2.07 1.77 1.56 1.46 1.38 1.27 1.07 0.99 0.93 0.95 0.95 0.97 0.92 0.81 0.70 0.60 0.59 0.57 0.59 0.50 0.44 0.41 0.39 0.28 0.23 0.21 0.19 0.16 0.17 0.22 0.41 0.65 0.77 0.73 0.62 0.55 0.51
2.52 2.47 2.52 2.59 2.57 2.43 2.18 1.97 1.69 1.57 1.50 1.45 1.30 1.19 1.16 1.09 1.03 0.97 0.90 0.81 0.80 0.70 0.68 0.63 0.55 0.47 0.42 0.37 0.37 0.36 0.31 0.28 0.26 0.24 0.22 0.23 0.36 0.59 0.72 0.73 0.70 0.65 0.62
2.47 2.52 2.59 2.54 2.50 2.48 2.38 2.14 1.85 1.69 1.56 1.49 1.52 1.39 1.31 1.23 1.14 1.10 1.01 0.91 0.80 0.77 0.77 0.74 0.65 0.60 0.54 0.47 0.41 0.40 0.39 0.34 0.31 0.30 0.29 0.25 0.27 0.40 0.56 0.70 0.80 0.81 0.80
2.21 2.44 2.59 2.59 2.51 2.44 2.45 2.36 2.07 1.75 1.67 1.62 1.57 1.55 1.48 1.39 1.30 1.24 1.13 1.08 0.96 0.86 0.83 0.82 0.74 0.73 0.73 0.67 0.56 0.48 0.44 0.40 0.35 0.32 0.31 0.31 0.31 0.32 0.43 0.61 0.75 0.85 0.95
1.98 2.21 2.44 2.64 2.65 2.50 2.44 2.49 2.43 2.11 1.83 1.63 1.60 1.60 1.58 1.50 1.42 1.34 1.29 1.18 1.05 0.98 0.95 0.97 0.94 0.91 0.84 0.78 0.70 0.64 0.59 0.53 0.47 0.41 0.38 0.35 0.36 0.36 0.42 0.55 0.68 0.81 0.96
1.84 2.03 2.22 2.35 2.55 2.54 2.45 2.42 2.45 2.34 2.11 1.87 1.66 1.62 1.58 1.50 1.50 1.50 1.44 1.41 1.26 1.17 1.12 1.06 1.05 1.01 0.91 0.84 0.77 0.73 0.70 0.67 0.63 0.60 0.56 0.50 0.46 0.40 0.42 0.53 0.64 0.76 0.88
1.74 1.94 2.21 2.18 2.30 2.53 2.69 2.59 2.43 2.32 2.16 2.00 1.80 1.60 1.52 1.57 1.59 1.55 1.41 1.41 1.47 1.36 1.24 1.17 1.11 1.07 0.99 0.93 0.90 0.83 0.77 0.73 0.71 0.70 0.71 0.67 0.63 0.58 0.52 0.56 0.59 0.61 0.70
1.74 1.90 2.16 2.18 2.27 2.48 2.75 2.76 2.64 2.45 2.20 2.08 1.86 1.62 1.51 1.51 1.60 1.54 1.42 1.40 1.45 1.42 1.31 1.24 1.15 1.11 1.07 1.07 1.03 0.94 0.85 0.79 0.77 0.75 0.72 0.73 0.72 0.68 0.64 0.59 0.55 0.56 0.59
1.86 1.89 2.04 2.17 2.27 2.37 2.48 2.46 2.34 2.29 2.23 2.14 1.99 1.84 1.70 1.62 1.64 1.63 1.52 1.49 1.49 1.44 1.37 1.38 1.40 1.31 1.21 1.20 1.14 0.96 0.85 0.80 0.75 0.74 0.72 0.67 0.65 0.66 0.66 0.64 0.58 0.54 0.55
1.77 1.84 2.01 2.16 2.22 2.21 2.31 2.46 2.37 2.40 2.40 2.38 2.30 2.14 1.97 1.85 1.78 1.73 1.71 1.69 1.62 1.53 1.48 1.45 1.46 1.44 1.35 1.34 1.31 1.23 1.01 0.87 0.76 0.69 0.69 0.65 0.63 0.64 0.64 0.68 0.68 0.60 0.53
1.64 1.86 1.98 2.07 2.18 2.20 2.41 2.82 2.77 2.63 2.56 2.52 2.43 2.32 2.20 2.09 2.00 1.83 1.77 1.83 1.79 1.66 1.57 1.52 1.49 1.47 1.51 1.48 1.41 1.46 1.22 0.94 0.79 0.72 0.68 0.64 0.63 0.66 0.69 0.70 0.73 0.69 0.59
1.45 1.71 1.99 2.10 2.23 2.39 2.60 2.81 2.86 2.60 2.41 2.37 2.38 2.37 2.35 2.16 2.08 2.02 1.93 1.87 1.88 1.83 1.70 1.64 1.60 1.56 1.58 1.56 1.49 1.34 1.24 1.05 0.96 0.82 0.70 0.67 0.65 0.63 0.64 0.67 0.70 0.73 0.74
1.31 1.49 1.74 2.01 2.13 2.37 2.55 2.64 2.80 2.61 2.34 2.36 2.37 2.33 2.36 2.27 2.09 2.05 1.98 1.87 1.77 1.73 1.74 1.74 1.69 1.64 1.56 1.46 1.40 1.31 1.24 1.09 0.93 0.89 0.76 0.66 0.67 0.65 0.63 0.66 0.70 0.74 0.77
1.15 1.27 1.43 1.67 1.79 1.91 2.12 2.34 2.51 2.53 2.45 2.37 2.25 2.20 2.20 2.17 2.12 2.08 2.06 1.93 1.78 1.67 1.60 1.62 1.65 1.64 1.61 1.52 1.41 1.34 1.28 1.21 1.07 1.02 0.95 0.78 0.75 0.71 0.70 0.71 0.70 0.72 0.73

GEFSSE_prec_meanprecacc_240.txt.gz
Total_Precipitation_Accumulation
0.08 0.17 0.43 0.53 0.61 0.62 0.59 0.56 0.54 0.54 0.55 0.56 0.56 0.54 0.52 0.52 0.56 0.51 0.48 0.44 0.48 0.56 0.66 0.70 0.65 0.57 0.49 0.45 0.43 0.36 0.32 0.29 0.26 0.23 0.20 0.24 0.28 0.28 0.23 0.23 0.29 0.35 0.43
0.07 0.17 0.41 0.52 0.65 0.65 0.65 0.59 0.55 0.54 0.58 0.63 0.68 0.66 0.59 0.55 0.55 0.52 0.49 0.49 0.51 0.57 0.69 0.72 0.65 0.51 0.37 0.29 0.26 0.23 0.21 0.18 0.14 0.09 0.06 0.08 0.14 0.18 0.19 0.19 0.24 0.32 0.35
0.08 0.17 0.40 0.56 0.68 0.69 0.69 0.63 0.58 0.56 0.62 0.73 0.79 0.76 0.67 0.57 0.56 0.56 0.51 0.52 0.57 0.65 0.69 0.65 0.57 0.44 0.32 0.26 0.20 0.17 0.16 0.12 0.08 0.05 0.05 0.08 0.13 0.18 0.18 0.20 0.25 0.32 0.35
0.13 0.20 0.38 0.65 0.72 0.73 0.72 0.71 0.67 0.64 0.64 0.73 0.83 0.77 0.70 0.65 0.65 0.60 0.56 0.57 0.61 0.63 0.61 0.55 0.47 0.37 0.27 0.21 0.19 0.17 0.16 0.12 0.07 0.05 0.08 0.10 0.13 0.23 0.24 0.25 0.29 0.33 0.37
0.23 0.30 0.49 0.74 0.85 0.79 0.77 0.74 0.75 0.74 0.73 0.76 0.79 0.79 0.74 0.69 0.70 0.68 0.63 0.60 0.59 0.60 0.56 0.48 0.39 0.31 0.24 0.19 0.17 0.17 0.15 0.11 0.06 0.05 0.09 0.12 0.17 0.32 0.35 0.33 0.33 0.35 0.35
0.34 0.48 0.71 0.91 0.96 0.92 0.84 0.79 0.81 0.86 0.92 0.90 0.87 0.84 0.80 0.76 0.77 0.75 0.67 0.57 0.54 0.52 0.52 0.46 0.36 0.30 0.24 0.20 0.17 0.15 0.15 0.12 0.06 0.05 0.08 0.12 0.19 0.39 0.41 0.36 0.37 0.38 0.39
0.44 0.63 0.89 1.10 1.13 1.07 0.98 0.95 0.94 0.99 1.04 1.04 1.00 0.95 0.86 0.84 0.85 0.79 0.66 0.56 0.55 0.53 0.54 0.49 0.37 0.31 0.28 0.23 0.21 0.18 0.14 0.09 0.06 0.06 0.10 0.14 0.25 0.42 0.41 0.40 0.45 0.47 0.49
0.71 0.91 1.13 1.31 1.29 1.16 1.06 1.01 0.99 1.06 1.09 1.08 1.01 0.99 0.95 0.92 0.91 0.85 0.72 0.62 0.61 0.61 0.62 0.56 0.47 0.38 0.31 0.27 0.23 0.19 0.12 0.08 0.07 0.07 0.11 0.15 0.29 0.45 0.44 0.40 0.46 0.52 0.58
1.21 1.34 1.41 1.44 1.37 1.33 1.17 1.04 1.00 1.04 1.10 1.11 1.06 1.01 1.00 1.00 1.03 0.94 0.82 0.76 0.70 0.68 0.67 0.62 0.55 0.47 0.41 0.34 0.25 0.18 0.12 0.09 0.06 0.06 0.07 0.12 0.29 0.50 0.55 0.51 0.55 0.59 0.59
1.67 1.77 1.79 1.73 1.60 1.48 1.34 1.13 1.02 1.04 1.07 1.09 1.06 0.96 0.87 0.92 0.98 0.89 0.79 0.79 0.75 0.72 0.66 0.60 0.57 0.56 0.49 0.42 0.28 0.17 0.12 0.11 0.08 0.07 0.08 0.17 0.35 0.60 0.73 0.70 0.71 0.67 0.60
2.03 2.08 2.16 2.11 1.92 1.77 1.55 1.24 1.12 1.14 1.14 1.08 1.03 0.90 0.89 0.94 0.94 0.81 0.72 0.68 0.65 0.65 0.62 0.60 0.59 0.57 0.52 0.45 0.33 0.20 0.16 0.13 0.09 0.08 0.12 0.25 0.46 0.66 0.75 0.73 0.72 0.62 0.53
2.22 2.26 2.30 2.33 2.28 2.15 1.89 1.59 1.43 1.30 1.25 1.11 0.96 0.95 0.88 0.90 0.95 0.86 0.81 0.72 0.64 0.60 0.58 0.62 0.64 0.62 0.53 0.45 0.38 0.25 0.19 0.18 0.17 0.14 0.16 0.27 0.45 0.65 0.75 0.73 0.68 0.60 0.50
2.39 2.45 2.46 2.54 2.49 2.34 2.08 1.78 1.58 1.48 1.41 1.29 1.10 1.02 0.96 0.97 0.97 0.99 0.95 0.88 0.76 0.63 0.61 0.59 0.61 0.52 0.46 0.43 0.40 0.28 0.23 0.22 0.21 0.18 0.19 0.25 0.43 0.70 0.83 0.80 0.69 0.61 0.55
2.54 2.49 2.54 2.61 2.59 2.45 2.20 1.99 1.70 1.59 1.54 1.48 1.33 1.22 1.19 1.11 1.05 0.98 0.91 0.85 0.84 0.72 0.69 0.65 0.56 0.48 0.44 0.39 0.39 0.36 0.31 0.29 0.26 0.24 0.23 0.26 0.39 0.63 0.77 0.78 0.74 0.69 0.66
2.49 2.54 2.62 2.57 2.52 2.51 2.41 2.17 1.87 1.71 1.59 1.53 1.57 1.44 1.35 1.26 1.17 1.13 1.04 0.94 0.83 0.80 0.79 0.77 0.67 0.62 0.56 0.50 0.44 0.42 0.39 0.35 0.31 0.31 0.30 0.27 0.29 0.44 0.62 0.76 0.85 0.86 0.84
2.22 2.46 2.61 2.61 2.54 2.46 2.47 2.38 2.09 1.77 1.69 1.66 1.62 1.60 1.54 1.44 1.35 1.28 1.15 1.10 0.98 0.89 0.86 0.84 0.76 0.76 0.76 0.70 0.60 0.51 0.45 0.41 0.36 0.33 0.32 0.32 0.32 0.35 0.48 0.67 0.81 0.92 1.01
1.99 2.23 2.46 2.67 2.67 2.52 2.46 2.51 2.45 2.13 1.85 1.66 1.64 1.65 1.63 1.56 1.48 1.40 1.34 1.21 1.07 1.00 0.98 1.01 0.98 0.95 0.88 0.81 0.73 0.68 0.62 0.55 0.48 0.43 0.39 0.36 0.37 0.38 0.45 0.60 0.75 0.88 1.04
1.86 2.06 2.25 2.38 2.57 2.56 2.46 2.44 2.47 2.36 2.13 1.89 1.70 1.65 1.62 1.55 1.56 1.56 1.49 1.44 1.29 1.21 1.17 1.09 1.07 1.04 0.95 0.88 0.81 0.78 0.74 0.70 0.65 0.62 0.58 0.52 0.48 0.41 0.44 0.57 0.69 0.83 0.97
1.76 1.98 2.25 2.21 2.32 2.55 2.71 2.61 2.45 2.34 2.18 2.02 1.82 1.62 1.55 1.61 1.64 1.61 1.49 1.48 1.51 1.39 1.28 1.22 1.14 1.10 1.02 0.97 0.95 0.89 0.83 0.79 0.75 0.74 0.74 0.70 0.65 0.60 0.54 0.58 0.63 0.68 0.82
1.76 1.94 2.21 2.22 2.31 2.52 2.78 2.78 2.65 2.47 2.22 2.10 1.87 1.63 1.53 1.54 1.66 1.61 1.49 1.50 1.56 1.50 1.36 1.29 1.21 1.15 1.10 1.10 1.08 1.00 0.93 0.85 0.82 0.80 0.76 0.76 0.74 0.70 0.66 0.61 0.58 0.61 0.71
1.87 1.92 2.08 2.21 2.31 2.42 2.52 2.48 2.35 2.30 2.25 2.17 2.02 1.86 1.72 1.65 1.68 1.70 1.60 1.58 1.59 1.53 1.46 1.46 1.48 1.37 1.25 1.23 1.16 0.99 0.91 0.86 0.81 0.80 0.77 0.69 0.67 0.68 0.69 0.67 0.60 0.56 0.61
1.78 1.86 2.04 2.20 2.26 2.24 2.35 2.49 2.40 2.42 2.41 2.41 2.36 2.18 2.00 1.88 1.82 1.77 1.77 1.76 1.70 1.62 1.56 1.53 1.55 1.51 1.41 1.38 1.33 1.26 1.06 0.93 0.81 0.74 0.73 0.67 0.65 0.66 0.67 0.71 0.71 0.63 0.57
1.65 1.88 2.01 2.11 2.21 2.24 2.45 2.86 2.80 2.66 2.58 2.53 2.47 2.38 2.24 2.12 2.03 1.87 1.81 1.89 1.85 1.73 1.64 1.59 1.56 1.53 1.56 1.52 1.44 1.48 1.25 0.97 0.82 0.75 0.70 0.66 0.65 0.68 0.70 0.72 0.75 0.72 0.62
1.46 1.73 2.01 2.14 2.27 2.44 2.64 2.85 2.88 2.63 2.43 2.39 2.39 2.41 2.41 2.21 2.13 2.06 1.97 1.94 1.96 1.91 1.76 1.70 1.66 1.61 1.62 1.60 1.53 1.36 1.26 1.07 0.97 0.83 0.72 0.68 0.67 0.65 0.66 0.69 0.72 0.76 0.76
1.32 1.49 1.76 2.04 2.16 2.41 2.59 2.68 2.83 2.64 2.37 2.39 2.38 2.35 2.40 2.32 2.14 2.09 2.02 1.90 1.81 1.79 1.79 1.78 1.73 1.68 1.60 1.50 1.43 1.34 1.25 1.09 0.94 0.90 0.77 0.67 0.68 0.65 0.64 0.67 0.72 0.77 0.79
1.15 1.28 1.44 1.67 1.81 1.94 2.15 2.36 2.53 2.55 2.48 2.39 2.26 2.21 2.21 2.20 2.16 2.12 2.09 1.96 1.82 1.71 1.65 1.67 1.69 1.68 1.65 1.55 1.44 1.37 1.30 1.22 1.08 1.03 0.96 0.79 0.75 0.71 0.70 0.72 0.72 0.74 0.76

GEFSSE_prec_meanprecacc_246.txt.gz
Total_Precipitation_Accumulation
0.09 0.18 0.45 0.56 0.65 0.67 0.66 0.61 0.58 0.57 0.57 0.59 0.58 0.55 0.54 0.53 0.58 0.53 0.50 0.46 0.50 0.58 0.68 0.73 0.70 0.61 0.51 0.47 0.46 0.41 0.36 0.33 0.30 0.26 0.23 0.27 0.31 0.31 0.25 0.25 0.31 0.37 0.47
0.08 0.18 0.43 0.55 0.69 0.70 0.70 0.65 0.59 0.57 0.61 0.66 0.70 0.67 0.61 0.56 0.57 0.55 0.51 0.50 0.53 0.59 0.72 0.76 0.68 0.55 0.39 0.30 0.27 0.26 0.24 0.20 0.16 0.10 0.07 0.10 0.16 0.20 0.20 0.21 0.25 0.35 0.39
0.10 0.19 0.41 0.60 0.72 0.74 0.73 0.69 0.64 0.60 0.65 0.76 0.82 0.78 0.69 0.59 0.58 0.59 0.55 0.55 0.60 0.68 0.72 0.68 0.60 0.48 0.34 0.27 0.21 0.18 0.17 0.13 0.09 0.05 0.05 0.08 0.14 0.19 0.18 0.21 0.27 0.35 0.38
0.15 0.22 0.40 0.68 0.76 0.77 0.76 0.76 0.72 0.68 0.68 0.76 0.86 0.80 0.73 0.68 0.68 0.63 0.60 0.62 0.65 0.66 0.64 0.58 0.49 0.39 0.29 0.22 0.19 0.18 0.16 0.12 0.08 0.05 0.08 0.11 0.15 0.25 0.26 0.26 0.30 0.35 0.39
0.25 0.31 0.51 0.77 0.88 0.83 0.81 0.78 0.79 0.78 0.78 0.80 0.82 0.82 0.77 0.72 0.73 0.72 0.67 0.65 0.63 0.64 0.59 0.50 0.40 0.32 0.25 0.20 0.17 0.18 0.16 0.12 0.07 0.05 0.10 0.13 0.19 0.35 0.38 0.35 0.35 0.36 0.36
0.35 0.50 0.72 0.93 0.99 0.95 0.88 0.83 0.86 0.90 0.96 0.93 0.91 0.87 0.83 0.79 0.80 0.79 0.71 0.61 0.58 0.56 0.55 0.48 0.38 0.32 0.27 0.22 0.18 0.16 0.16 0.13 0.06 0.05 0.08 0.13 0.21 0.44 0.47 0.40 0.40 0.41 0.41
0.45 0.64 0.91 1.12 1.16 1.10 1.02 0.99 0.98 1.03 1.09 1.08 1.04 0.99 0.89 0.87 0.87 0.81 0.68 0.59 0.59 0.57 0.57 0.52 0.40 0.34 0.30 0.26 0.23 0.20 0.15 0.09 0.06 0.07 0.11 0.15 0.27 0.46 0.46 0.44 0.48 0.51 0.51
0.72 0.92 1.15 1.34 1.32 1.19 1.09 1.04 1.02 1.09 1.13 1.12 1.04 1.03 0.99 0.94 0.93 0.86 0.73 0.65 0.65 0.66 0.66 0.59 0.49 0.40 0.34 0.30 0.25 0.21 0.13 0.08 0.07 0.07 0.12 0.17 0.31 0.49 0.49 0.44 0.49 0.55 0.60
1.22 1.36 1.43 1.47 1.41 1.36 1.20 1.07 1.02 1.06 1.13 1.14 1.10 1.04 1.03 1.02 1.05 0.96 0.84 0.79 0.74 0.73 0.71 0.65 0.57 0.50 0.44 0.37 0.27 0.19 0.13 0.09 0.07 0.06 0.08 0.14 0.31 0.53 0.61 0.58 0.61 0.64 0.62
1.68 1.79 1.81 1.76 1.63 1.51 1.37 1.15 1.04 1.06 1.09 1.11 1.09 0.98 0.89 0.93 0.99 0.91 0.81 0.82 0.79 0.76 0.70 0.63 0.60 0.60 0.53 0.45 0.30 0.18 0.14 0.12 0.09 0.08 0.09 0.18 0.38 0.64 0.77 0.75 0.77 0.73 0.66
2.04 2.10 2.18 2.14 1.96 1.80 1.57 1.25 1.14 1.15 1.16 1.10 1.05 0.92 0.91 0.95 0.95 0.82 0.74 0.70 0.68 0.68 0.65 0.64 0.63 0.62 0.56 0.48 0.35 0.22 0.17 0.13 0.11 0.10 0.13 0.26 0.49 0.70 0.79 0.78 0.79 0.67 0.59
2.22 2.28 2.32 2.36 2.31 2.19 1.92 1.61 1.46 1.32 1.27 1.13 0.99 0.98 0.91 0.92 0.97 0.87 0.83 0.74 0.67 0.63 0.62 0.66 0.68 0.65 0.56 0.47 0.39 0.26 0.20 0.19 0.18 0.16 0.18 0.29 0.48 0.69 0.78 0.76 0.73 0.65 0.55
2.41 2.47 2.49 2.57 2.52 2.38 2.11 1.81 1.61 1.51 1.44 1.32 1.14 1.06 0.99 1.00 0.99 1.01 0.98 0.91 0.80 0.68 0.67 0.64 0.64 0.54 0.49 0.45 0.43 0.29 0.23 0.22 0.22 0.20 0.22 0.28 0.47 0.75 0.88 0.84 0.73 0.66 0.59
2.56 2.52 2.57 2.64 2.62 2.48 2.23 2.02 1.74 1.62 1.55 1.50 1.36 1.26 1.22 1.15 1.09 1.01 0.93 0.88 0.89 0.77 0.75 0.69 0.58 0.50 0.46 0.41 0.42 0.38 0.32 0.29 0.26 0.26 0.25 0.28 0.44 0.68 0.83 0.84 0.79 0.75 0.71
2.50 2.57 2.65 2.61 2.56 2.55 2.44 2.19 1.90 1.74 1.62 1.54 1.59 1.46 1.38 1.29 1.21 1.20 1.10 1.00 0.89 0.85 0.85 0.83 0.71 0.64 0.58 0.52 0.48 0.44 0.40 0.35 0.32 0.31 0.31 0.28 0.32 0.48 0.67 0.81 0.90 0.91 0.88
2.24 2.48 2.64 2.65 2.58 2.51 2.52 2.41 2.10 1.79 1.72 1.68 1.63 1.62 1.56 1.47 1.38 1.31 1.23 1.19 1.07 0.97 0.93 0.91 0.80 0.79 0.77 0.72 0.62 0.54 0.47 0.42 0.36 0.33 0.32 0.33 0.33 0.37 0.51 0.71 0.86 0.96 1.06
2.02 2.26 2.50 2.71 2.72 2.57 2.51 2.55 2.47 2.15 1.88 1.69 1.65 1.66 1.66 1.59 1.51 1.43 1.38 1.26 1.13 1.07 1.05 1.06 1.02 0.98 0.91 0.84 0.75 0.70 0.64 0.57 0.49 0.43 0.40 0.37 0.38 0.39 0.46 0.62 0.78 0.92 1.09
1.89 2.09 2.29 2.42 2.61 2.61 2.51 2.48 2.50 2.39 2.16 1.92 1.72 1.67 1.64 1.58 1.59 1.58 1.53 1.48 1.31 1.23 1.21 1.13 1.11 1.07 0.97 0.90 0.83 0.80 0.77 0.72 0.66 0.63 0.59 0.54 0.50 0.43 0.45 0.58 0.72 0.86 1.01
1.77 2.00 2.28 2.25 2.36 2.60 2.76 2.65 2.49 2.38 2.22 2.05 1.85 1.64 1.57 1.63 1.67 1.63 1.51 1.51 1.54 1.42 1.31 1.26 1.18 1.13 1.04 0.99 0.97 0.91 0.86 0.84 0.78 0.76 0.76 0.72 0.68 0.62 0.55 0.60 0.64 0.70 0.86
1.77 1.95 2.22 2.25 2.34 2.56 2.81 2.81 2.68 2.52 2.29 2.15 1.92 1.67 1.55 1.55 1.67 1.63 1.52 1.53 1.59 1.54 1.40 1.32 1.25 1.21 1.14 1.13 1.11 1.04 0.97 0.94 0.90 0.85 0.81 0.80 0.78 0.74 0.69 0.63 0.60 0.63 0.74
1.88 1.93 2.10 2.24 2.35 2.45 2.56 2.52 2.39 2.34 2.31 2.23 2.05 1.88 1.74 1.67 1.70 1.72 1.62 1.62 1.63 1.58 1.51 1.50 1.50 1.42 1.32 1.29 1.21 1.03 0.96 0.98 0.93 0.86 0.81 0.73 0.70 0.71 0.71 0.70 0.63 0.59 0.64
1.78 1.86 2.05 2.22 2.29 2.29 2.40 2.54 2.44 2.46 2.46 2.45 2.38 2.19 2.01 1.90 1.84 1.79 1.80 1.80 1.75 1.67 1.61 1.58 1.59 1.56 1.46 1.45 1.41 1.32 1.10 1.01 0.93 0.82 0.77 0.71 0.67 0.68 0.68 0.73 0.73 0.65 0.59
1.65 1.88 2.01 2.12 2.24 2.28 2.50 2.91 2.84 2.70 2.62 2.57 2.49 2.39 2.26 2.14 2.05 1.90 1.85 1.93 1.90 1.78 1.69 1.64 1.60 1.57 1.60 1.58 1.51 1.55 1.31 1.03 0.89 0.82 0.75 0.69 0.67 0.69 0.71 0.73 0.76 0.73 0.64
1.46 1.73 2.01 2.15 2.30 2.49 2.70 2.91 2.94 2.67 2.47 2.42 2.43 2.44 2.43 2.23 2.15 2.08 2.00 1.99 2.02 1.97 1.81 1.76 1.72 1.66 1.67 1.65 1.59 1.42 1.31 1.11 1.02 0.89 0.76 0.71 0.69 0.66 0.67 0.70 0.73 0.77 0.77
1.32 1.50 1.76 2.05 2.18 2.44 2.65 2.77 2.92 2.70 2.42 2.43 2.43 2.38 2.42 2.34 2.16 2.13 2.06 1.95 1.87 1.86 1.88 1.86 1.79 1.74 1.66 1.55 1.48 1.39 1.31 1.14 0.98 0.95 0.81 0.69 0.70 0.67 0.65 0.68 0.73 0.77 0.80
1.15 1.28 1.44 1.68 1.82 1.98 2.20 2.43 2.62 2.63 2.54 2.45 2.31 2.24 2.24 2.22 2.17 2.14 2.13 2.01 1.87 1.77 1.72 1.74 1.76 1.74 1.70 1.61 1.49 1.41 1.35 1.28 1.13 1.08 1.00 0.81 0.77 0.73 0.72 0.73 0.72 0.74 0.76

GEFSSE_prec_meanprecacc_252.txt.gz
Total_Precipitation_Accumulation
0.12 0.19 0.46 0.58 0.68 0.70 0.68 0.64 0.63 0.61 0.60 0.62 0.61 0.57 0.55 0.55 0.61 0.57 0.53 0.50 0.54 0.62 0.72 0.76 0.74 0.65 0.53 0.50 0.49 0.42 0.37 0.35 0.33 0.31 0.28 0.30 0.33 0.34 0.28 0.30 0.37 0.42 0.51
0.11 0.19 0.44 0.56 0.71 0.71 0.72 0.68 0.62 0.61 0.64 0.69 0.72 0.69 0.63 0.59 0.61 0.58 0.55 0.55 0.57 0.63 0.76 0.79 0.72 0.58 0.41 0.32 0.29 0.27 0.26 0.22 0.19 0.12 0.09 0.11 0.18 0.22 0.22 0.24 0.30 0.40 0.43
0.12 0.20 0.42 0.61 0.74 0.76 0.75 0.72 0.66 0.63 0.68 0.79 0.85 0.81 0.71 0.62 0.60 0.61 0.57 0.58 0.64 0.71 0.75 0.71 0.62 0.51 0.36 0.29 0.23 0.19 0.19 0.15 0.11 0.06 0.06 0.10 0.15 0.21 0.21 0.23 0.31 0.40 0.44
0.16 0.23 0.41 0.70 0.79 0.79 0.78 0.77 0.73 0.70 0.71 0.80 0.90 0.84 0.76 0.71 0.71 0.65 0.62 0.65 0.69 0.70 0.67 0.61 0.51 0.41 0.31 0.23 0.20 0.19 0.17 0.14 0.09 0.07 0.11 0.15 0.18 0.27 0.28 0.30 0.35 0.40 0.45
0.27 0.33 0.52 0.79 0.90 0.85 0.83 0.80 0.81 0.81 0.81 0.83 0.85 0.85 0.81 0.75 0.76 0.74 0.69 0.68 0.67 0.68 0.63 0.54 0.43 0.34 0.27 0.22 0.18 0.19 0.17 0.13 0.08 0.07 0.13 0.17 0.25 0.40 0.41 0.38 0.39 0.39 0.39
0.37 0.53 0.74 0.94 1.01 0.97 0.90 0.86 0.89 0.94 0.99 0.97 0.93 0.89 0.86 0.81 0.82 0.81 0.72 0.62 0.61 0.59 0.59 0.52 0.41 0.34 0.29 0.24 0.20 0.18 0.17 0.13 0.08 0.08 0.11 0.16 0.26 0.47 0.50 0.43 0.45 0.45 0.45
0.46 0.67 0.93 1.14 1.18 1.13 1.05 1.01 1.01 1.07 1.12 1.11 1.07 1.02 0.92 0.90 0.90 0.83 0.69 0.60 0.61 0.60 0.60 0.56 0.44 0.36 0.33 0.27 0.25 0.22 0.16 0.10 0.08 0.10 0.15 0.18 0.30 0.49 0.50 0.47 0.51 0.55 0.56
0.73 0.93 1.17 1.37 1.35 1.22 1.12 1.06 1.05 1.13 1.17 1.14 1.06 1.06 1.03 0.98 0.96 0.88 0.74 0.66 0.66 0.69 0.70 0.63 0.53 0.43 0.37 0.32 0.27 0.22 0.14 0.08 0.08 0.10 0.15 0.19 0.33 0.51 0.52 0.48 0.52 0.59 0.64
1.23 1.38 1.46 1.50 1.44 1.39 1.22 1.09 1.04 1.08 1.15 1.16 1.12 1.07 1.06 1.06 1.08 0.97 0.85 0.80 0.76 0.76 0.76 0.69 0.60 0.52 0.45 0.39 0.28 0.20 0.14 0.09 0.07 0.08 0.10 0.16 0.33 0.57 0.65 0.62 0.65 0.68 0.66
1.69 1.81 1.84 1.79 1.66 1.53 1.38 1.15 1.05 1.07 1.10 1.12 1.11 1.00 0.91 0.96 1.02 0.93 0.82 0.83 0.80 0.79 0.74 0.66 0.63 0.62 0.54 0.46 0.31 0.19 0.14 0.13 0.09 0.08 0.10 0.20 0.41 0.68 0.81 0.79 0.81 0.76 0.70
2.06 2.12 2.20 2.15 1.98 1.83 1.58 1.26 1.14 1.16 1.17 1.10 1.06 0.93 0.92 0.97 0.98 0.86 0.77 0.72 0.69 0.71 0.69 0.66 0.65 0.63 0.57 0.49 0.36 0.23 0.18 0.15 0.11 0.11 0.14 0.28 0.52 0.73 0.82 0.81 0.84 0.72 0.62
2.24 2.29 2.34 2.38 2.33 2.20 1.94 1.63 1.47 1.33 1.28 1.14 1.00 0.99 0.93 0.95 1.02 0.93 0.87 0.77 0.69 0.66 0.66 0.69 0.71 0.67 0.57 0.49 0.40 0.27 0.21 0.19 0.19 0.17 0.20 0.31 0.52 0.73 0.82 0.79 0.78 0.71 0.59
2.42 2.49 2.51 2.59 2.54 2.40 2.13 1.83 1.63 1.53 1.46 1.34 1.15 1.08 1.01 1.03 1.03 1.05 1.03 0.96 0.84 0.71 0.71 0.69 0.67 0.56 0.50 0.47 0.46 0.32 0.24 0.23 0.24 0.22 0.24 0.31 0.50 0.79 0.93 0.88 0.78 0.71 0.63
2.58 2.54 2.60 2.67 2.64 2.50 2.25 2.04 1.76 1.65 1.58 1.52 1.38 1.29 1.25 1.17 1.11 1.03 0.96 0.94 0.94 0.81 0.80 0.77 0.63 0.52 0.48 0.44 0.45 0.41 0.34 0.30 0.28 0.28 0.28 0.30 0.46 0.72 0.88 0.88 0.83 0.78 0.74
2.52 2.60 2.70 2.67 2.61 2.59 2.47 2.21 1.93 1.78 1.66 1.58 1.61 1.50 1.41 1.32 1.25 1.23 1.12 1.03 0.94 0.91 0.91 0.89 0.78 0.68 0.61 0.55 0.50 0.48 0.43 0.37 0.33 0.33 0.33 0.29 0.33 0.51 0.70 0.85 0.94 0.94 0.92
2.25 2.50 2.67 2.70 2.64 2.57 2.57 2.45 2.13 1.81 1.76 1.73 1.68 1.66 1.60 1.50 1.40 1.34 1.26 1.22 1.10 1.03 1.00 0.98 0.89 0.88 0.85 0.76 0.65 0.56 0.50 0.44 0.38 0.35 0.34 0.34 0.34 0.39 0.53 0.74 0.90 1.00 1.10
2.03 2.28 2.52 2.73 2.76 2.62 2.55 2.59 2.51 2.18 1.91 1.74 1.70 1.71 1.71 1.63 1.53 1.44 1.40 1.28 1.14 1.10 1.11 1.14 1.11 1.09 1.01 0.90 0.79 0.73 0.66 0.59 0.52 0.45 0.41 0.39 0.39 0.40 0.47 0.64 0.81 0.95 1.13
1.90 2.10 2.30 2.44 2.65 2.65 2.55 2.52 2.55 2.41 2.18 1.95 1.75 1.71 1.68 1.62 1.61 1.60 1.55 1.50 1.33 1.25 1.24 1.19 1.19 1.17 1.05 0.96 0.87 0.83 0.79 0.74 0.68 0.65 0.61 0.56 0.51 0.43 0.46 0.59 0.73 0.88 1.04
1.78 2.02 2.30 2.27 2.39 2.63 2.81 2.71 2.53 2.42 2.24 2.08 1.88 1.68 1.61 1.66 1.69 1.65 1.53 1.53 1.57 1.44 1.33 1.29 1.23 1.20 1.12 1.05 1.00 0.94 0.89 0.86 0.81 0.78 0.78 0.74 0.70 0.64 0.57 0.60 0.65 0.71 0.87
1.77 1.96 2.24 2.28 2.37 2.59 2.85 2.87 2.75 2.58 2.34 2.21 1.97 1.71 1.59 1.59 1.70 1.65 1.53 1.54 1.61 1.56 1.42 1.34 1.28 1.25 1.20 1.20 1.17 1.07 0.99 0.96 0.93 0.88 0.82 0.81 0.80 0.76 0.70 0.64 0.61 0.64 0.75
1.88 1.93 2.11 2.26 2.37 2.47 2.59 2.56 2.44 2.41 2.38 2.31 2.13 1.93 1.79 1.71 1.74 1.75 1.65 1.63 1.65 1.60 1.53 1.53 1.53 1.45 1.36 1.35 1.28 1.09 0.99 1.01 0.96 0.90 0.85 0.75 0.71 0.72 0.72 0.71 0.64 0.60 0.65
1.78 1.87 2.06 2.23 2.31 2.31 2.42 2.57 2.48 2.51 2.54 2.56 2.47 2.26 2.06 1.95 1.88 1.83 1.83 1.83 1.77 1.69 1.63 1.60 1.61 1.58 1.50 1.50 1.47 1.37 1.15 1.07 0.98 0.86 0.82 0.74 0.70 0.69 0.69 0.74 0.75 0.67 0.60
1.65 1.88 2.01 2.13 2.26 2.30 2.52 2.93 2.86 2.73 2.66 2.65 2.60 2.48 2.31 2.18 2.10 1.95 1.89 1.96 1.93 1.80 1.71 1.66 1.63 1.60 1.63 1.62 1.56 1.60 1.35 1.06 0.94 0.88 0.79 0.73 0.71 0.73 0.73 0.74 0.77 0.75 0.66
1.46 1.73 2.02 2.15 2.31 2.50 2.72 2.94 2.96 2.70 2.51 2.47 2.48 2.50 2.48 2.27 2.19 2.12 2.05 2.04 2.06 2.00 1.84 1.79 1.75 1.70 1.71 1.69 1.64 1.47 1.35 1.14 1.04 0.92 0.81 0.76 0.73 0.70 0.70 0.72 0.74 0.78 0.79
1.32 1.50 1.76 2.05 2.19 2.45 2.67 2.80 2.95 2.73 2.46 2.48 2.47 2.44 2.47 2.39 2.21 2.17 2.09 1.99 1.92 1.91 1.92 1.90 1.83 1.78 1.70 1.59 1.53 1.43 1.35 1.18 1.01 0.97 0.84 0.74 0.75 0.71 0.69 0.71 0.75 0.79 0.82
1.15 1.28 1.44 1.68 1.82 1.98 2.21 2.45 2.64 2.66 2.58 2.50 2.36 2.31 2.31 2.28 2.23 2.19 2.17 2.05 1.90 1.81 1.77 1.79 1.82 1.79 1.75 1.66 1.54 1.46 1.39 1.31 1.15 1.10 1.04 0.85 0.81 0.77 0.76 0.77 0.75 0.76 0.78

GEFSSE_prec_meanprecacc_258.txt.gz
Total_Precipitation_Accumulation
0.15 0.22 0.50 0.61 0.70 0.71 0.70 0.66 0.64 0.63 0.62 0.64 0.63 0.61 0.58 0.57 0.63 0.58 0.55 0.52 0.56 0.64 0.75 0.80 0.77 0.68 0.56 0.52 0.50 0.44 0.40 0.38 0.37 0.34 0.30 0.32 0.36 0.37 0.31 0.33 0.39 0.44 0.55
0.14 0.22 0.48 0.60 0.73 0.73 0.73 0.70 0.63 0.62 0.65 0.71 0.74 0.72 0.66 0.62 0.63 0.60 0.57 0.58 0.60 0.65 0.79 0.82 0.74 0.61 0.43 0.33 0.30 0.29 0.28 0.24 0.21 0.14 0.09 0.13 0.20 0.25 0.26 0.27 0.32 0.42 0.48
0.14 0.22 0.45 0.65 0.76 0.77 0.76 0.73 0.68 0.64 0.69 0.80 0.87 0.84 0.75 0.66 0.64 0.64 0.60 0.62 0.67 0.74 0.77 0.72 0.63 0.52 0.38 0.30 0.23 0.21 0.20 0.16 0.12 0.07 0.07 0.11 0.16 0.24 0.24 0.26 0.34 0.44 0.48
0.19 0.26 0.43 0.73 0.81 0.81 0.80 0.79 0.75 0.72 0.72 0.80 0.90 0.85 0.77 0.74 0.74 0.68 0.65 0.68 0.71 0.73 0.68 0.62 0.52 0.42 0.33 0.26 0.22 0.20 0.19 0.15 0.10 0.08 0.12 0.15 0.18 0.31 0.32 0.35 0.40 0.44 0.49
0.30 0.36 0.55 0.81 0.92 0.87 0.85 0.82 0.82 0.82 0.82 0.84 0.86 0.85 0.82 0.77 0.78 0.76 0.70 0.68 0.68 0.69 0.64 0.55 0.45 0.35 0.29 0.24 0.20 0.21 0.19 0.14 0.08 0.08 0.14 0.19 0.27 0.45 0.46 0.44 0.45 0.44 0.43
0.39 0.55 0.76 0.96 1.03 1.00 0.93 0.88 0.91 0.96 1.01 0.99 0.95 0.91 0.88 0.82 0.84 0.83 0.73 0.63 0.61 0.60 0.60 0.53 0.43 0.36 0.30 0.25 0.22 0.21 0.21 0.14 0.08 0.09 0.12 0.18 0.28 0.51 0.53 0.47 0.49 0.49 0.49
0.47 0.68 0.94 1.15 1.20 1.15 1.07 1.03 1.03 1.10 1.14 1.14 1.09 1.04 0.95 0.91 0.91 0.84 0.70 0.61 0.62 0.61 0.61 0.57 0.46 0.39 0.34 0.29 0.28 0.25 0.18 0.11 0.08 0.11 0.15 0.20 0.32 0.54 0.54 0.51 0.55 0.59 0.59
0.73 0.94 1.18 1.38 1.36 1.23 1.13 1.07 1.06 1.16 1.20 1.16 1.08 1.08 1.06 1.00 0.97 0.89 0.75 0.67 0.67 0.70 0.72 0.65 0.55 0.46 0.39 0.34 0.29 0.24 0.15 0.09 0.09 0.11 0.16 0.20 0.35 0.55 0.56 0.51 0.57 0.64 0.68
1.24 1.39 1.47 1.51 1.45 1.40 1.23 1.09 1.05 1.09 1.16 1.17 1.13 1.08 1.08 1.08 1.09 0.98 0.86 0.82 0.77 0.78 0.78 0.72 0.63 0.55 0.48 0.41 0.30 0.21 0.14 0.10 0.08 0.08 0.10 0.17 0.35 0.61 0.70 0.66 0.68 0.73 0.71
1.70 1.82 1.84 1.79 1.67 1.54 1.39 1.16 1.05 1.07 1.11 1.13 1.12 1.00 0.91 0.97 1.05 0.96 0.83 0.84 0.82 0.82 0.76 0.68 0.65 0.64 0.58 0.50 0.33 0.20 0.15 0.13 0.09 0.09 0.11 0.21 0.45 0.74 0.86 0.83 0.85 0.81 0.75
2.07 2.13 2.21 2.17 1.99 1.84 1.59 1.26 1.14 1.16 1.17 1.11 1.07 0.94 0.93 0.98 0.99 0.89 0.78 0.73 0.71 0.74 0.71 0.68 0.67 0.65 0.59 0.52 0.38 0.23 0.18 0.15 0.11 0.11 0.15 0.31 0.58 0.78 0.86 0.85 0.88 0.77 0.67
2.25 2.31 2.36 2.40 2.34 2.22 1.95 1.64 1.48 1.34 1.28 1.14 1.00 0.99 0.93 0.96 1.03 0.94 0.89 0.79 0.70 0.68 0.67 0.71 0.72 0.68 0.58 0.50 0.42 0.28 0.22 0.20 0.20 0.17 0.21 0.35 0.56 0.77 0.86 0.83 0.82 0.75 0.63
2.44 2.52 2.55 2.63 2.57 2.42 2.15 1.84 1.64 1.54 1.46 1.34 1.16 1.09 1.02 1.04 1.04 1.07 1.05 0.99 0.85 0.73 0.73 0.71 0.69 0.57 0.52 0.48 0.47 0.32 0.25 0.23 0.24 0.22 0.25 0.34 0.54 0.83 0.97 0.92 0.81 0.75 0.68
2.59 2.56 2.63 2.72 2.69 2.54 2.28 2.06 1.77 1.66 1.59 1.53 1.39 1.30 1.27 1.19 1.12 1.05 0.98 0.97 0.98 0.83 0.83 0.79 0.65 0.54 0.49 0.45 0.46 0.42 0.35 0.31 0.28 0.28 0.28 0.33 0.49 0.75 0.91 0.91 0.86 0.82 0.78
2.54 2.62 2.73 2.71 2.66 2.65 2.53 2.25 1.95 1.79 1.67 1.59 1.63 1.51 1.42 1.34 1.26 1.25 1.14 1.04 0.96 0.96 0.96 0.93 0.81 0.70 0.64 0.56 0.51 0.49 0.44 0.38 0.34 0.34 0.33 0.30 0.35 0.52 0.72 0.87 0.97 0.99 0.94
2.26 2.52 2.70 2.73 2.67 2.62 2.63 2.51 2.18 1.84 1.78 1.75 1.69 1.68 1.62 1.52 1.43 1.36 1.28 1.24 1.12 1.05 1.04 1.03 0.94 0.93 0.89 0.80 0.68 0.58 0.52 0.45 0.40 0.36 0.35 0.34 0.35 0.40 0.55 0.76 0.93 1.05 1.14
2.04 2.29 2.53 2.75 2.78 2.65 2.59 2.65 2.56 2.22 1.94 1.76 1.73 1.74 1.74 1.65 1.56 1.47 1.42 1.30 1.16 1.11 1.13 1.17 1.16 1.14 1.07 0.97 0.84 0.77 0.69 0.62 0.54 0.46 0.42 0.39 0.39 0.41 0.48 0.66 0.83 0.99 1.18
1.90 2.11 2.31 2.45 2.67 2.68 2.59 2.57 2.61 2.46 2.23 1.99 1.79 1.75 1.72 1.66 1.65 1.64 1.58 1.52 1.35 1.27 1.26 1.21 1.21 1.20 1.11 1.04 0.96 0.91 0.84 0.78 0.71 0.67 0.63 0.57 0.52 0.44 0.47 0.60 0.74 0.91 1.08
1.78 2.02 2.31 2.28 2.40 2.65 2.84 2.75 2.59 2.49 2.31 2.14 1.92 1.72 1.66 1.73 1.75 1.70 1.58 1.57 1.60 1.47 1.35 1.31 1.25 1.22 1.16 1.11 1.08 1.03 0.97 0.93 0.85 0.81 0.80 0.76 0.71 0.65 0.57 0.61 0.66 0.73 0.91
1.78 1.96 2.24 2.28 2.38 2.60 2.87 2.91 2.81 2.64 2.40 2.27 2.03 1.76 1.65 1.65 1.77 1.71 1.59 1.60 1.66 1.61 1.46 1.37 1.29 1.27 1.23 1.25 1.23 1.15 1.08 1.03 1.00 0.93 0.85 0.83 0.82 0.78 0.72 0.65 0.62 0.65 0.77
1.88 1.94 2.11 2.27 2.38 2.48 2.60 2.58 2.49 2.48 2.45 2.38 2.20 2.01 1.86 1.78 1.81 1.82 1.71 1.69 1.71 1.67 1.58 1.56 1.55 1.47 1.38 1.38 1.34 1.15 1.07 1.07 1.02 0.96 0.89 0.78 0.73 0.75 0.76 0.74 0.66 0.61 0.66
1.79 1.87 2.06 2.24 2.31 2.31 2.43 2.59 2.51 2.55 2.61 2.63 2.55 2.33 2.14 2.03 1.96 1.91 1.90 1.90 1.83 1.76 1.71 1.66 1.65 1.61 1.52 1.52 1.51 1.43 1.22 1.15 1.05 0.92 0.87 0.77 0.73 0.71 0.72 0.78 0.79 0.69 0.61
1.66 1.88 2.02 2.13 2.26 2.31 2.53 2.94 2.89 2.78 2.72 2.72 2.71 2.59 2.41 2.27 2.18 2.03 1.96 2.02 2.00 1.88 1.79 1.72 1.67 1.63 1.66 1.64 1.58 1.65 1.41 1.14 1.03 0.97 0.88 0.78 0.75 0.76 0.75 0.76 0.81 0.79 0.69
1.46 1.73 2.02 2.16 2.31 2.51 2.73 2.96 2.98 2.73 2.56 2.54 2.56 2.60 2.58 2.37 2.29 2.23 2.16 2.12 2.12 2.07 1.92 1.85 1.79 1.72 1.73 1.72 1.65 1.49 1.40 1.21 1.12 1.00 0.90 0.84 0.79 0.75 0.74 0.74 0.77 0.81 0.82
1.32 1.50 1.76 2.05 2.19 2.46 2.68 2.81 2.98 2.76 2.48 2.52 2.53 2.50 2.54 2.45 2.28 2.25 2.19 2.10 2.03 1.99 2.00 1.99 1.88 1.82 1.73 1.62 1.55 1.45 1.38 1.22 1.07 1.04 0.91 0.79 0.79 0.76 0.74 0.74 0.78 0.82 0.86
1.16 1.29 1.45 1.68 1.83 1.99 2.22 2.46 2.67 2.70 2.61 2.53 2.39 2.36 2.38 2.34 2.28 2.24 2.24 2.13 2.01 1.93 1.88 1.89 1.90 1.84 1.79 1.68 1.56 1.48 1.42 1.34 1.19 1.16 1.10 0.90 0.84 0.79 0.78 0.79 0.78 0.79 0.81

GEFSSE_prec_meanprecacc_264.txt.gz
Total_Precipitation_Accumulation
0.17 0.24 0.55 0.69 0.77 0.76 0.74 0.68 0.66 0.65 0.64 0.66 0.66 0.64 0.61 0.60 0.66 0.62 0.58 0.55 0.59 0.68 0.79 0.82 0.79 0.70 0.59 0.56 0.53 0.47 0.44 0.42 0.39 0.37 0.33 0.36 0.40 0.41 0.35 0.37 0.43 0.47 0.59
0.15 0.24 0.54 0.67 0.79 0.77 0.76 0.72 0.65 0.64 0.67 0.73 0.79 0.77 0.69 0.65 0.66 0.64 0.60 0.60 0.62 0.68 0.84 0.85 0.76 0.63 0.45 0.36 0.33 0.32 0.30 0.26 0.23 0.15 0.11 0.14 0.22 0.29 0.30 0.30 0.36 0.45 0.52
0.16 0.24 0.49 0.71 0.82 0.82 0.80 0.76 0.70 0.66 0.71 0.83 0.90 0.88 0.78 0.69 0.67 0.69 0.63 0.64 0.69 0.77 0.81 0.75 0.65 0.53 0.39 0.32 0.25 0.22 0.21 0.17 0.14 0.08 0.08 0.12 0.19 0.28 0.27 0.31 0.38 0.48 0.53
0.22 0.28 0.47 0.78 0.86 0.85 0.84 0.82 0.78 0.74 0.74 0.82 0.92 0.86 0.79 0.76 0.77 0.73 0.69 0.71 0.73 0.75 0.70 0.64 0.54 0.45 0.35 0.28 0.23 0.21 0.20 0.16 0.11 0.08 0.13 0.17 0.20 0.35 0.37 0.39 0.45 0.48 0.52
0.31 0.36 0.58 0.86 0.96 0.90 0.88 0.84 0.85 0.85 0.84 0.86 0.87 0.87 0.84 0.78 0.81 0.79 0.73 0.70 0.69 0.70 0.65 0.56 0.47 0.37 0.30 0.26 0.22 0.23 0.20 0.15 0.09 0.08 0.14 0.20 0.30 0.51 0.53 0.50 0.49 0.47 0.47
0.40 0.56 0.78 1.00 1.06 1.02 0.95 0.90 0.93 0.98 1.04 1.01 0.97 0.92 0.90 0.85 0.87 0.86 0.75 0.64 0.62 0.61 0.61 0.54 0.44 0.38 0.31 0.27 0.25 0.25 0.23 0.15 0.09 0.10 0.13 0.20 0.31 0.59 0.60 0.54 0.54 0.53 0.53
0.48 0.69 0.96 1.18 1.23 1.17 1.09 1.05 1.05 1.12 1.17 1.16 1.12 1.06 0.98 0.94 0.93 0.87 0.72 0.62 0.62 0.62 0.62 0.58 0.48 0.41 0.36 0.31 0.31 0.30 0.21 0.12 0.08 0.11 0.16 0.21 0.35 0.60 0.61 0.58 0.62 0.65 0.64
0.74 0.95 1.20 1.40 1.39 1.26 1.16 1.10 1.09 1.18 1.22 1.17 1.10 1.10 1.09 1.04 1.00 0.91 0.77 0.68 0.68 0.71 0.73 0.66 0.57 0.49 0.42 0.37 0.33 0.28 0.18 0.10 0.10 0.11 0.16 0.21 0.38 0.60 0.63 0.59 0.63 0.70 0.73
1.25 1.40 1.49 1.54 1.48 1.43 1.27 1.13 1.08 1.12 1.19 1.19 1.15 1.10 1.10 1.11 1.12 1.00 0.88 0.83 0.79 0.80 0.79 0.73 0.65 0.58 0.51 0.44 0.33 0.23 0.16 0.11 0.09 0.09 0.11 0.17 0.37 0.65 0.76 0.73 0.74 0.80 0.76
1.72 1.83 1.86 1.82 1.70 1.57 1.43 1.20 1.09 1.10 1.14 1.16 1.14 1.03 0.94 0.99 1.07 0.99 0.85 0.86 0.84 0.83 0.78 0.70 0.67 0.67 0.60 0.51 0.35 0.22 0.16 0.14 0.10 0.09 0.12 0.22 0.48 0.78 0.92 0.89 0.89 0.87 0.82
2.09 2.15 2.24 2.20 2.03 1.87 1.63 1.30 1.19 1.19 1.20 1.13 1.09 0.96 0.95 1.00 1.00 0.91 0.80 0.74 0.73 0.76 0.73 0.69 0.69 0.67 0.61 0.55 0.39 0.25 0.20 0.16 0.12 0.11 0.15 0.32 0.61 0.82 0.91 0.90 0.93 0.81 0.73
2.27 2.33 2.38 2.42 2.38 2.26 1.99 1.68 1.51 1.36 1.30 1.16 1.02 1.01 0.94 0.98 1.05 0.96 0.91 0.81 0.72 0.69 0.68 0.72 0.74 0.70 0.60 0.52 0.44 0.30 0.23 0.21 0.21 0.18 0.21 0.38 0.60 0.80 0.92 0.89 0.86 0.78 0.66
2.46 2.54 2.57 2.65 2.60 2.46 2.19 1.88 1.68 1.57 1.49 1.37 1.18 1.10 1.03 1.05 1.07 1.09 1.07 1.01 0.87 0.74 0.75 0.73 0.70 0.58 0.53 0.49 0.48 0.34 0.26 0.24 0.25 0.24 0.27 0.38 0.58 0.87 1.02 0.97 0.86 0.79 0.72
2.60 2.57 2.65 2.74 2.72 2.57 2.32 2.11 1.82 1.70 1.64 1.57 1.42 1.33 1.29 1.20 1.14 1.08 1.01 0.99 0.99 0.84 0.84 0.81 0.66 0.54 0.50 0.46 0.46 0.43 0.36 0.31 0.29 0.30 0.30 0.38 0.54 0.79 0.95 0.95 0.90 0.87 0.83
2.55 2.63 2.75 2.73 2.69 2.68 2.57 2.30 2.00 1.84 1.73 1.65 1.67 1.55 1.46 1.37 1.28 1.27 1.17 1.08 0.99 0.97 0.97 0.95 0.83 0.71 0.64 0.57 0.52 0.50 0.45 0.39 0.35 0.35 0.35 0.34 0.39 0.56 0.75 0.90 1.00 1.04 1.00
2.28 2.55 2.73 2.76 2.70 2.65 2.65 2.53 2.21 1.88 1.83 1.80 1.74 1.72 1.67 1.56 1.46 1.38 1.29 1.26 1.16 1.09 1.07 1.05 0.96 0.94 0.90 0.80 0.68 0.59 0.53 0.48 0.42 0.39 0.37 0.37 0.39 0.44 0.58 0.79 0.96 1.09 1.20
2.04 2.31 2.56 2.78 2.81 2.68 2.62 2.67 2.59 2.26 1.99 1.80 1.76 1.77 1.78 1.69 1.60 1.51 1.45 1.33 1.19 1.18 1.20 1.22 1.18 1.16 1.09 0.98 0.84 0.78 0.71 0.65 0.58 0.50 0.45 0.42 0.42 0.43 0.51 0.68 0.87 1.03 1.24
1.91 2.11 2.33 2.47 2.69 2.70 2.62 2.60 2.64 2.50 2.29 2.07 1.85 1.80 1.77 1.70 1.68 1.67 1.61 1.55 1.38 1.30 1.33 1.31 1.26 1.23 1.14 1.06 0.97 0.92 0.86 0.81 0.76 0.72 0.67 0.59 0.54 0.46 0.49 0.62 0.77 0.94 1.13
1.78 2.02 2.31 2.29 2.41 2.67 2.87 2.78 2.62 2.53 2.36 2.22 2.03 1.81 1.73 1.79 1.81 1.76 1.63 1.61 1.64 1.52 1.41 1.40 1.34 1.28 1.21 1.16 1.12 1.06 0.99 0.95 0.89 0.86 0.84 0.79 0.74 0.67 0.59 0.63 0.68 0.75 0.96
1.78 1.97 2.25 2.29 2.38 2.61 2.88 2.93 2.84 2.67 2.44 2.34 2.14 1.88 1.75 1.74 1.84 1.79 1.66 1.67 1.73 1.67 1.51 1.43 1.37 1.33 1.28 1.31 1.30 1.20 1.12 1.06 1.03 0.96 0.90 0.87 0.86 0.81 0.75 0.67 0.64 0.67 0.81
1.88 1.94 2.12 2.27 2.38 2.49 2.61 2.59 2.51 2.52 2.51 2.45 2.29 2.13 1.99 1.90 1.90 1.91 1.80 1.79 1.80 1.73 1.63 1.62 1.62 1.53 1.44 1.43 1.40 1.22 1.14 1.12 1.06 1.00 0.94 0.83 0.77 0.79 0.81 0.78 0.68 0.63 0.67
1.79 1.87 2.07 2.24 2.32 2.32 2.44 2.59 2.51 2.57 2.66 2.70 2.63 2.43 2.27 2.16 2.09 2.02 2.01 2.02 1.97 1.87 1.79 1.73 1.73 1.68 1.58 1.57 1.56 1.48 1.28 1.21 1.10 0.96 0.91 0.83 0.78 0.76 0.75 0.82 0.83 0.71 0.63
1.66 1.88 2.02 2.13 2.27 2.31 2.53 2.95 2.89 2.79 2.74 2.77 2.78 2.69 2.51 2.39 2.32 2.19 2.11 2.16 2.14 2.01 1.90 1.81 1.76 1.71 1.72 1.69 1.62 1.69 1.46 1.20 1.08 1.01 0.92 0.84 0.81 0.81 0.79 0.80 0.84 0.82 0.71
1.46 1.73 2.02 2.16 2.32 2.51 2.74 2.96 2.98 2.74 2.58 2.56 2.60 2.69 2.70 2.48 2.40 2.38 2.31 2.27 2.28 2.22 2.04 1.94 1.87 1.80 1.81 1.78 1.70 1.53 1.43 1.25 1.17 1.05 0.94 0.90 0.86 0.81 0.80 0.79 0.80 0.84 0.85
1.32 1.50 1.77 2.05 2.19 2.46 2.69 2.82 2.98 2.77 2.49 2.54 2.55 2.54 2.63 2.57 2.39 2.36 2.31 2.22 2.16 2.17 2.17 2.11 1.97 1.89 1.80 1.69 1.61 1.50 1.41 1.25 1.10 1.09 0.96 0.85 0.87 0.83 0.80 0.80 0.83 0.86 0.89
1.16 1.29 1.45 1.69 1.83 1.99 2.22 2.47 2.68 2.71 2.63 2.54 2.41 2.38 2.42 2.42 2.37 2.34 2.33 2.21 2.08 2.01 2.00 2.05 2.04 1.95 1.88 1.75 1.62 1.54 1.46 1.37 1.22 1.19 1.15 0.95 0.91 0.87 0.85 0.85 0.82 0.84 0.87

GEFSSE_prec_meanprecacc_270.txt.gz
Total_Precipitation_Accumulation
0.18 0.25 0.61 0.76 0.85 0.85 0.79 0.72 0.70 0.69 0.68 0.70 0.71 0.70 0.67 0.67 0.72 0.67 0.63 0.60 0.65 0.75 0.84 0.86 0.82 0.73 0.63 0.59 0.56 0.51 0.48 0.45 0.43 0.40 0.35 0.38 0.43 0.43 0.37 0.39 0.46 0.50 0.61
0.16 0.25 0.58 0.74 0.85 0.82 0.80 0.74 0.69 0.67 0.70 0.77 0.84 0.83 0.74 0.70 0.71 0.69 0.64 0.63 0.66 0.75 0.91 0.90 0.79 0.65 0.48 0.38 0.36 0.36 0.34 0.29 0.25 0.16 0.12 0.15 0.24 0.32 0.32 0.33 0.39 0.48 0.55
0.17 0.26 0.54 0.77 0.87 0.87 0.84 0.78 0.72 0.68 0.73 0.86 0.95 0.92 0.82 0.72 0.70 0.72 0.66 0.66 0.72 0.81 0.86 0.80 0.69 0.56 0.41 0.34 0.27 0.25 0.24 0.20 0.15 0.08 0.08 0.13 0.21 0.32 0.31 0.34 0.42 0.51 0.56
0.23 0.29 0.50 0.84 0.92 0.91 0.88 0.86 0.81 0.77 0.76 0.83 0.94 0.89 0.83 0.80 0.81 0.75 0.71 0.73 0.76 0.77 0.73 0.66 0.56 0.48 0.37 0.30 0.25 0.23 0.22 0.17 0.11 0.08 0.14 0.17 0.23 0.39 0.42 0.44 0.50 0.53 0.57
0.31 0.37 0.61 0.91 1.02 0.97 0.94 0.88 0.89 0.89 0.87 0.88 0.89 0.88 0.85 0.81 0.83 0.81 0.75 0.73 0.71 0.73 0.67 0.58 0.48 0.39 0.32 0.28 0.24 0.25 0.22 0.16 0.09 0.09 0.15 0.21 0.35 0.56 0.58 0.56 0.55 0.52 0.50
0.40 0.56 0.79 1.03 1.12 1.10 1.02 0.95 0.97 1.03 1.07 1.03 0.99 0.94 0.92 0.87 0.89 0.88 0.78 0.66 0.64 0.63 0.63 0.55 0.45 0.39 0.33 0.29 0.27 0.26 0.24 0.16 0.09 0.10 0.14 0.22 0.38 0.65 0.66 0.62 0.60 0.58 0.57
0.48 0.70 0.97 1.20 1.26 1.21 1.13 1.10 1.11 1.18 1.21 1.20 1.15 1.10 1.02 0.98 0.96 0.89 0.74 0.64 0.64 0.64 0.63 0.59 0.48 0.42 0.37 0.32 0.34 0.32 0.22 0.12 0.09 0.13 0.18 0.25 0.41 0.66 0.68 0.65 0.69 0.71 0.69
0.75 0.96 1.21 1.43 1.42 1.28 1.18 1.13 1.12 1.23 1.26 1.21 1.13 1.15 1.14 1.10 1.04 0.94 0.80 0.70 0.71 0.74 0.75 0.67 0.58 0.49 0.43 0.38 0.35 0.31 0.19 0.11 0.10 0.12 0.18 0.24 0.43 0.66 0.72 0.67 0.71 0.77 0.79
1.26 1.42 1.52 1.58 1.51 1.46 1.30 1.15 1.10 1.14 1.22 1.23 1.18 1.13 1.14 1.16 1.17 1.03 0.91 0.86 0.81 0.82 0.81 0.74 0.65 0.59 0.52 0.45 0.34 0.25 0.17 0.12 0.10 0.10 0.12 0.19 0.41 0.71 0.84 0.81 0.83 0.89 0.86
1.74 1.85 1.89 1.86 1.73 1.60 1.46 1.24 1.12 1.13 1.16 1.18 1.17 1.05 0.96 1.02 1.11 1.02 0.88 0.89 0.87 0.86 0.80 0.71 0.68 0.68 0.61 0.52 0.36 0.23 0.17 0.15 0.11 0.11 0.14 0.24 0.52 0.83 0.98 0.94 0.97 0.95 0.91
2.11 2.16 2.25 2.22 2.05 1.90 1.66 1.34 1.23 1.24 1.23 1.16 1.12 0.98 0.97 1.02 1.02 0.93 0.82 0.76 0.76 0.79 0.74 0.71 0.70 0.68 0.62 0.56 0.40 0.25 0.20 0.17 0.13 0.13 0.17 0.34 0.64 0.86 0.97 0.95 0.99 0.88 0.79
2.28 2.34 2.39 2.43 2.39 2.29 2.03 1.71 1.55 1.41 1.35 1.20 1.06 1.04 0.98 1.01 1.07 0.97 0.92 0.82 0.74 0.72 0.71 0.74 0.76 0.72 0.61 0.54 0.46 0.31 0.24 0.22 0.21 0.20 0.23 0.40 0.63 0.84 0.96 0.94 0.92 0.84 0.72
2.47 2.55 2.58 2.67 2.61 2.48 2.22 1.91 1.71 1.61 1.54 1.43 1.24 1.15 1.07 1.08 1.09 1.11 1.08 1.02 0.89 0.76 0.77 0.75 0.72 0.60 0.54 0.50 0.49 0.36 0.28 0.25 0.26 0.25 0.29 0.40 0.61 0.91 1.06 1.02 0.91 0.85 0.77
2.62 2.58 2.66 2.76 2.75 2.60 2.35 2.14 1.85 1.74 1.69 1.64 1.49 1.39 1.35 1.24 1.17 1.10 1.03 1.01 1.01 0.86 0.86 0.84 0.70 0.56 0.52 0.47 0.47 0.44 0.37 0.33 0.31 0.32 0.33 0.40 0.57 0.83 0.99 0.98 0.94 0.91 0.87
2.56 2.65 2.77 2.75 2.71 2.70 2.60 2.32 2.03 1.89 1.80 1.75 1.77 1.63 1.53 1.43 1.33 1.30 1.18 1.10 1.01 0.99 0.99 0.97 0.86 0.76 0.67 0.58 0.53 0.50 0.46 0.39 0.36 0.37 0.36 0.36 0.43 0.60 0.80 0.93 1.03 1.07 1.04
2.30 2.57 2.75 2.78 2.73 2.67 2.69 2.57 2.24 1.92 1.87 1.85 1.81 1.82 1.76 1.66 1.54 1.46 1.35 1.29 1.19 1.11 1.08 1.07 0.97 0.98 0.94 0.83 0.69 0.60 0.54 0.48 0.42 0.39 0.38 0.39 0.42 0.48 0.62 0.83 0.99 1.12 1.24
2.05 2.33 2.59 2.81 2.85 2.71 2.66 2.71 2.62 2.29 2.01 1.83 1.79 1.82 1.85 1.78 1.69 1.61 1.57 1.41 1.24 1.22 1.23 1.24 1.19 1.17 1.11 1.00 0.86 0.79 0.72 0.66 0.58 0.51 0.46 0.44 0.45 0.47 0.54 0.71 0.89 1.07 1.28
1.91 2.12 2.34 2.49 2.72 2.73 2.65 2.63 2.67 2.53 2.31 2.08 1.87 1.81 1.79 1.74 1.74 1.73 1.69 1.64 1.46 1.37 1.40 1.36 1.30 1.26 1.16 1.08 0.99 0.93 0.87 0.82 0.77 0.73 0.68 0.61 0.57 0.49 0.53 0.66 0.80 0.97 1.18
1.79 2.03 2.32 2.30 2.43 2.69 2.89 2.80 2.65 2.55 2.39 2.24 2.04 1.83 1.75 1.81 1.85 1.80 1.67 1.65 1.68 1.56 1.46 1.45 1.41 1.34 1.25 1.19 1.14 1.07 1.00 0.96 0.89 0.87 0.86 0.81 0.76 0.69 0.62 0.67 0.71 0.78 1.00
1.78 1.97 2.26 2.30 2.39 2.63 2.91 2.97 2.88 2.70 2.47 2.36 2.15 1.89 1.77 1.76 1.87 1.83 1.71 1.71 1.76 1.70 1.54 1.47 1.41 1.40 1.34 1.35 1.34 1.23 1.14 1.07 1.03 0.98 0.92 0.90 0.88 0.83 0.77 0.70 0.67 0.70 0.84
1.88 1.94 2.12 2.27 2.39 2.50 2.63 2.62 2.54 2.56 2.54 2.47 2.31 2.14 2.00 1.92 1.93 1.95 1.85 1.84 1.85 1.78 1.68 1.66 1.66 1.58 1.49 1.48 1.45 1.29 1.20 1.16 1.08 1.02 0.96 0.86 0.80 0.82 0.83 0.80 0.71 0.66 0.70
1.79 1.87 2.07 2.24 2.32 2.32 2.44 2.60 2.53 2.60 2.69 2.74 2.66 2.44 2.27 2.17 2.12 2.07 2.07 2.10 2.04 1.94 1.86 1.80 1.78 1.73 1.62 1.62 1.62 1.55 1.35 1.29 1.15 0.98 0.93 0.86 0.81 0.78 0.78 0.85 0.85 0.74 0.66
1.66 1.88 2.02 2.13 2.27 2.31 2.54 2.95 2.90 2.80 2.76 2.79 2.81 2.70 2.52 2.39 2.33 2.22 2.17 2.25 2.24 2.11 1.99 1.91 1.84 1.76 1.77 1.74 1.66 1.75 1.54 1.27 1.13 1.04 0.94 0.87 0.86 0.85 0.82 0.82 0.86 0.84 0.74
1.46 1.73 2.02 2.16 2.32 2.51 2.75 2.96 2.99 2.74 2.59 2.57 2.61 2.70 2.71 2.48 2.41 2.39 2.36 2.33 2.36 2.32 2.14 2.05 1.97 1.88 1.87 1.84 1.76 1.58 1.48 1.30 1.22 1.10 0.97 0.94 0.92 0.87 0.83 0.82 0.83 0.87 0.89
1.32 1.50 1.77 2.05 2.20 2.47 2.69 2.83 2.99 2.77 2.50 2.54 2.56 2.55 2.64 2.58 2.40 2.37 2.34 2.27 2.23 2.25 2.28 2.24 2.08 1.98 1.87 1.74 1.66 1.55 1.45 1.29 1.14 1.13 0.99 0.88 0.92 0.89 0.84 0.83 0.87 0.91 0.94
1.16 1.29 1.45 1.69 1.83 1.99 2.23 2.47 2.68 2.72 2.63 2.54 2.41 2.38 2.43 2.43 2.38 2.35 2.35 2.25 2.13 2.07 2.06 2.15 2.16 2.04 1.94 1.81 1.67 1.58 1.49 1.40 1.25 1.23 1.18 0.98 0.94 0.92 0.91 0.89 0.86 0.88 0.92

GEFSSE_prec_meanprecacc_276.txt.gz
Total_Precipitation_Accumulation
0.20 0.27 0.63 0.80 0.92 0.93 0.85 0.76 0.73 0.73 0.73 0.75 0.76 0.75 0.73 0.73 0.76 0.71 0.70 0.67 0.71 0.80 0.89 0.92 0.87 0.76 0.65 0.60 0.57 0.53 0.50 0.48 0.45 0.42 0.36 0.39 0.45 0.46 0.40 0.43 0.51 0.53 0.64
0.18 0.28 0.61 0.79 0.91 0.87 0.85 0.79 0.72 0.70 0.74 0.82 0.89 0.88 0.80 0.77 0.77 0.74 0.68 0.69 0.73 0.84 0.99 0.97 0.85 0.70 0.52 0.40 0.38 0.39 0.37 0.31 0.26 0.17 0.13 0.17 0.26 0.35 0.38 0.39 0.44 0.52 0.58
0.19 0.28 0.57 0.81 0.92 0.92 0.89 0.83 0.77 0.72 0.77 0.89 0.99 0.97 0.87 0.77 0.75 0.76 0.70 0.70 0.75 0.86 0.92 0.86 0.74 0.61 0.47 0.38 0.31 0.28 0.27 0.21 0.16 0.09 0.10 0.16 0.24 0.36 0.35 0.40 0.48 0.55 0.60
0.23 0.30 0.52 0.88 0.97 0.95 0.92 0.89 0.85 0.80 0.78 0.86 0.98 0.93 0.86 0.82 0.83 0.77 0.74 0.76 0.79 0.80 0.76 0.70 0.60 0.52 0.41 0.34 0.29 0.27 0.23 0.18 0.12 0.09 0.17 0.23 0.27 0.44 0.48 0.49 0.55 0.57 0.60
0.32 0.38 0.63 0.95 1.07 1.01 0.98 0.91 0.92 0.92 0.90 0.91 0.92 0.92 0.88 0.83 0.85 0.83 0.77 0.76 0.74 0.75 0.69 0.61 0.50 0.41 0.35 0.32 0.28 0.28 0.23 0.16 0.10 0.11 0.20 0.28 0.39 0.62 0.64 0.61 0.62 0.57 0.54
0.41 0.58 0.81 1.06 1.16 1.14 1.06 1.00 1.01 1.05 1.09 1.06 1.03 0.98 0.95 0.90 0.91 0.90 0.80 0.68 0.68 0.66 0.65 0.57 0.47 0.40 0.34 0.31 0.30 0.29 0.25 0.16 0.11 0.15 0.21 0.30 0.44 0.71 0.71 0.66 0.66 0.64 0.62
0.49 0.71 0.99 1.23 1.29 1.25 1.18 1.14 1.16 1.23 1.25 1.23 1.19 1.14 1.07 1.02 0.99 0.91 0.76 0.66 0.67 0.66 0.66 0.62 0.50 0.43 0.38 0.34 0.36 0.34 0.24 0.14 0.12 0.18 0.24 0.32 0.49 0.71 0.73 0.70 0.73 0.76 0.74
0.76 0.97 1.24 1.46 1.44 1.32 1.22 1.15 1.15 1.26 1.29 1.25 1.17 1.20 1.21 1.15 1.08 0.97 0.82 0.73 0.74 0.77 0.78 0.71 0.60 0.50 0.43 0.39 0.37 0.32 0.20 0.12 0.12 0.14 0.22 0.29 0.49 0.71 0.77 0.73 0.77 0.82 0.84
1.27 1.43 1.53 1.60 1.53 1.49 1.33 1.18 1.13 1.17 1.24 1.25 1.20 1.16 1.17 1.18 1.18 1.05 0.93 0.89 0.84 0.85 0.84 0.77 0.68 0.61 0.53 0.46 0.35 0.26 0.18 0.12 0.12 0.12 0.14 0.23 0.45 0.76 0.91 0.88 0.88 0.94 0.91
1.74 1.86 1.90 1.87 1.75 1.63 1.49 1.27 1.15 1.16 1.19 1.21 1.19 1.07 0.98 1.04 1.13 1.04 0.90 0.91 0.89 0.88 0.82 0.73 0.70 0.70 0.63 0.53 0.37 0.23 0.17 0.16 0.14 0.14 0.18 0.28 0.56 0.88 1.04 1.01 1.02 0.99 0.96
2.11 2.17 2.26 2.23 2.06 1.93 1.69 1.36 1.26 1.27 1.26 1.20 1.16 1.02 1.00 1.05 1.06 0.96 0.84 0.78 0.78 0.80 0.76 0.73 0.73 0.71 0.64 0.58 0.41 0.26 0.21 0.18 0.15 0.16 0.21 0.38 0.69 0.90 1.02 1.01 1.05 0.94 0.83
2.29 2.34 2.39 2.43 2.40 2.30 2.05 1.74 1.59 1.44 1.38 1.24 1.12 1.10 1.03 1.06 1.12 1.01 0.95 0.84 0.76 0.74 0.73 0.76 0.79 0.75 0.64 0.56 0.48 0.32 0.25 0.22 0.22 0.21 0.25 0.42 0.67 0.88 1.01 1.00 0.98 0.92 0.78
2.48 2.56 2.58 2.67 2.62 2.49 2.24 1.93 1.74 1.64 1.57 1.46 1.29 1.22 1.13 1.15 1.15 1.17 1.13 1.05 0.91 0.78 0.79 0.77 0.74 0.63 0.57 0.53 0.51 0.38 0.29 0.26 0.27 0.26 0.30 0.41 0.63 0.94 1.09 1.07 0.98 0.93 0.84
2.62 2.58 2.66 2.76 2.75 2.60 2.36 2.16 1.89 1.78 1.73 1.67 1.53 1.45 1.42 1.31 1.25 1.17 1.09 1.06 1.05 0.89 0.88 0.86 0.72 0.59 0.56 0.51 0.51 0.47 0.39 0.34 0.32 0.34 0.34 0.41 0.59 0.87 1.03 1.05 1.02 0.99 0.96
2.57 2.66 2.77 2.75 2.71 2.71 2.61 2.34 2.06 1.93 1.83 1.78 1.82 1.68 1.59 1.50 1.41 1.38 1.25 1.15 1.07 1.04 1.02 0.99 0.89 0.80 0.71 0.64 0.58 0.53 0.48 0.41 0.38 0.38 0.38 0.37 0.45 0.63 0.84 0.99 1.10 1.13 1.11
2.30 2.57 2.75 2.78 2.73 2.68 2.70 2.59 2.26 1.94 1.90 1.88 1.85 1.85 1.81 1.71 1.61 1.54 1.44 1.37 1.25 1.17 1.13 1.10 1.01 1.03 1.02 0.90 0.76 0.66 0.57 0.51 0.44 0.41 0.39 0.40 0.45 0.51 0.67 0.88 1.05 1.18 1.30
2.05 2.33 2.59 2.82 2.85 2.72 2.66 2.72 2.65 2.32 2.04 1.86 1.82 1.86 1.88 1.81 1.73 1.67 1.64 1.51 1.33 1.28 1.29 1.27 1.22 1.21 1.16 1.05 0.92 0.85 0.76 0.69 0.60 0.53 0.48 0.45 0.48 0.52 0.61 0.77 0.95 1.12 1.33
1.91 2.12 2.34 2.50 2.72 2.74 2.65 2.64 2.69 2.56 2.34 2.12 1.91 1.85 1.82 1.77 1.76 1.76 1.72 1.70 1.54 1.46 1.48 1.43 1.35 1.30 1.20 1.12 1.03 0.97 0.90 0.85 0.79 0.75 0.70 0.62 0.58 0.53 0.59 0.72 0.85 1.02 1.22
1.79 2.03 2.32 2.30 2.44 2.70 2.90 2.81 2.66 2.57 2.40 2.26 2.07 1.86 1.78 1.84 1.87 1.82 1.70 1.67 1.70 1.60 1.52 1.53 1.49 1.41 1.32 1.24 1.18 1.11 1.04 0.99 0.92 0.88 0.87 0.82 0.77 0.71 0.65 0.71 0.75 0.82 1.04
1.78 1.97 2.26 2.30 2.39 2.63 2.92 2.98 2.89 2.71 2.48 2.38 2.17 1.92 1.80 1.78 1.89 1.84 1.72 1.73 1.78 1.72 1.56 1.49 1.45 1.44 1.39 1.41 1.38 1.26 1.17 1.10 1.06 1.00 0.94 0.91 0.89 0.85 0.78 0.72 0.70 0.73 0.88
1.89 1.94 2.12 2.28 2.39 2.50 2.63 2.62 2.54 2.56 2.55 2.49 2.33 2.16 2.03 1.94 1.95 1.96 1.86 1.86 1.87 1.80 1.70 1.69 1.68 1.61 1.52 1.52 1.50 1.32 1.23 1.18 1.10 1.04 0.99 0.89 0.82 0.83 0.85 0.82 0.73 0.69 0.73
1.79 1.87 2.07 2.24 2.32 2.32 2.44 2.60 2.53 2.60 2.69 2.74 2.67 2.46 2.30 2.20 2.14 2.08 2.08 2.12 2.07 1.97 1.88 1.82 1.81 1.77 1.66 1.65 1.66 1.59 1.40 1.33 1.18 1.01 0.96 0.89 0.85 0.81 0.80 0.87 0.87 0.77 0.69
1.66 1.88 2.02 2.14 2.27 2.32 2.54 2.95 2.91 2.81 2.76 2.79 2.81 2.72 2.53 2.41 2.35 2.24 2.18 2.26 2.26 2.14 2.03 1.95 1.87 1.81 1.82 1.79 1.72 1.81 1.59 1.31 1.17 1.07 0.98 0.90 0.89 0.89 0.85 0.85 0.88 0.86 0.77
1.46 1.73 2.02 2.16 2.32 2.52 2.75 2.97 3.00 2.75 2.59 2.57 2.61 2.71 2.72 2.50 2.42 2.41 2.37 2.34 2.37 2.33 2.16 2.08 2.01 1.95 1.94 1.90 1.82 1.65 1.54 1.34 1.26 1.13 1.01 0.97 0.96 0.91 0.87 0.85 0.86 0.89 0.91
1.32 1.50 1.77 2.05 2.20 2.47 2.69 2.83 2.99 2.78 2.50 2.54 2.56 2.55 2.65 2.58 2.41 2.38 2.35 2.28 2.23 2.25 2.29 2.25 2.10 2.04 1.95 1.81 1.73 1.61 1.51 1.33 1.18 1.17 1.03 0.92 0.96 0.93 0.88 0.86 0.89 0.93 0.96
1.16 1.29 1.45 1.69 1.83 1.99 2.23 2.47 2.69 2.72 2.64 2.55 2.41 2.39 2.43 2.43 2.39 2.36 2.36 2.26 2.14 2.08 2.07 2.16 2.18 2.07 1.98 1.86 1.73 1.64 1.55 1.45 1.29 1.26 1.21 1.01 0.98 0.95 0.94 0.92 0.88 0.90 0.94